Wetterdaten: Montag, 24.08.2009
Datum Zeit Temp. Innen Temp. Aussen UV X Diff Temp. Feuchte Inne Feuchte Auss Sonnenschein Luftdruck Regen ab 0,1 Wind Sonnenschein Windben
24.08.2009 00:04 23,8 C 17,1 C 0,0 UV-I 0,0 C 47 % 63 % 0 % 1016,4 hPa 0,0 l/m 0,0 km/h (0 Bft) 0 min 0,0 km/h (0 Bft)
24.08.2009 00:09 23,8 C 17,1 C 0,0 UV-I 0,0 C 47 % 63 % 0 % 1016,4 hPa 0,0 l/m 0,0 km/h (0 Bft) 0 min 0,0 km/h (0 Bft)
24.08.2009 00:14 23,8 C 16,9 C 0,0 UV-I 0,0 C 47 % 64 % 0 % 1016,4 hPa 0,0 l/m 0,0 km/h (0 Bft) 0 min 0,0 km/h (0 Bft)
24.08.2009 00:19 23,8 C 16,8 C 0,0 UV-I 0,0 C 47 % 63 % 0 % 1016,3 hPa 0,0 l/m 0,0 km/h (0 Bft) 0 min 0,0 km/h (0 Bft)
24.08.2009 00:24 23,8 C 16,8 C 0,0 UV-I 0,0 C 47 % 64 % 0 % 1016,3 hPa 0,0 l/m 0,0 km/h (0 Bft) 0 min 0,0 km/h (0 Bft)
24.08.2009 00:29 23,7 C 16,7 C 0,0 UV-I 0,0 C 47 % 64 % 0 % 1016,3 hPa 0,0 l/m 0,0 km/h (0 Bft) 0 min 0,0 km/h (0 Bft)
24.08.2009 00:34 23,7 C 16,7 C 0,0 UV-I 0,0 C 47 % 65 % 0 % 1016,3 hPa 0,0 l/m 0,0 km/h (0 Bft) 0 min 0,0 km/h (0 Bft)
24.08.2009 00:39 23,7 C 16,5 C 0,0 UV-I 0,0 C 47 % 65 % 0 % 1016,4 hPa 0,0 l/m 0,0 km/h (0 Bft) 0 min 0,0 km/h (0 Bft)
24.08.2009 00:44 23,7 C 16,5 C 0,0 UV-I 0,0 C 47 % 66 % 0 % 1016,4 hPa 0,0 l/m 0,0 km/h (0 Bft) 0 min 0,0 km/h (0 Bft)
24.08.2009 00:49 23,7 C 16,2 C 0,0 UV-I 0,0 C 48 % 67 % 0 % 1016,4 hPa 0,0 l/m 0,0 km/h (0 Bft) 0 min 0,0 km/h (0 Bft)
24.08.2009 00:54 23,6 C 16,1 C 0,0 UV-I 0,0 C 48 % 67 % 0 % 1016,4 hPa 0,0 l/m 0,0 km/h (0 Bft) 0 min 0,0 km/h (0 Bft)
24.08.2009 00:59 23,6 C 16,1 C 0,0 UV-I 0,0 C 48 % 67 % 0 % 1015,9 hPa 0,0 l/m 0,0 km/h (0 Bft) 0 min 0,0 km/h (0 Bft)
24.08.2009 01:04 23,6 C 15,9 C 0,0 UV-I 0,0 C 48 % 68 % 0 % 1015,9 hPa 0,0 l/m 0,0 km/h (0 Bft) 0 min 0,0 km/h (0 Bft)
24.08.2009 01:09 23,6 C 15,7 C 0,0 UV-I 0,0 C 48 % 68 % 0 % 1015,9 hPa 0,0 l/m 0,0 km/h (0 Bft) 0 min 0,0 km/h (0 Bft)
24.08.2009 01:14 23,6 C 15,6 C 0,0 UV-I 0,0 C 48 % 69 % 0 % 1015,9 hPa 0,0 l/m 0,0 km/h (0 Bft) 0 min 0,0 km/h (0 Bft)
24.08.2009 01:19 23,5 C 15,6 C 0,0 UV-I 0,0 C 48 % 70 % 0 % 1015,6 hPa 0,0 l/m 0,0 km/h (0 Bft) 0 min 0,0 km/h (0 Bft)
24.08.2009 01:24 23,5 C 15,4 C 0,0 UV-I 0,0 C 48 % 70 % 0 % 1015,6 hPa 0,0 l/m 0,0 km/h (0 Bft) 0 min 0,0 km/h (0 Bft)
24.08.2009 01:29 23,4 C 15,3 C 0,0 UV-I 0,0 C 48 % 70 % 0 % 1015,6 hPa 0,0 l/m 0,0 km/h (0 Bft) 0 min 0,0 km/h (0 Bft)
24.08.2009 01:34 23,4 C 15,3 C 0,0 UV-I 0,0 C 48 % 71 % 0 % 1015,6 hPa 0,0 l/m 0,0 km/h (0 Bft) 0 min 0,0 km/h (0 Bft)
24.08.2009 01:39 23,4 C 15,1 C 0,0 UV-I 0,0 C 48 % 71 % 0 % 1015,6 hPa 0,0 l/m 0,0 km/h (0 Bft) 0 min 0,0 km/h (0 Bft)
24.08.2009 01:44 23,4 C 15,1 C 0,0 UV-I 0,0 C 48 % 72 % 0 % 1015,6 hPa 0,0 l/m 0,0 km/h (0 Bft) 0 min 0,0 km/h (0 Bft)
24.08.2009 01:49 23,2 C 14,9 C 0,0 UV-I 0,0 C 48 % 72 % 0 % 1015,6 hPa 0,0 l/m 0,0 km/h (0 Bft) 0 min 0,0 km/h (0 Bft)
24.08.2009 01:54 23,2 C 14,9 C 0,0 UV-I 0,0 C 48 % 73 % 0 % 1015,6 hPa 0,0 l/m 0,0 km/h (0 Bft) 0 min 0,0 km/h (0 Bft)
24.08.2009 01:59 23,3 C 14,7 C 0,0 UV-I 0,0 C 49 % 73 % 0 % 1015,1 hPa 0,0 l/m 0,0 km/h (0 Bft) 0 min 0,0 km/h (0 Bft)
24.08.2009 02:04 23,3 C 14,7 C 0,0 UV-I 0,0 C 49 % 73 % 0 % 1015,1 hPa 0,0 l/m 0,0 km/h (0 Bft) 0 min 0,0 km/h (0 Bft)
24.08.2009 02:09 23,2 C 14,5 C 0,0 UV-I 0,0 C 48 % 73 % 0 % 1015,1 hPa 0,0 l/m 0,0 km/h (0 Bft) 0 min 0,0 km/h (0 Bft)
24.08.2009 02:14 23,2 C 14,5 C 0,0 UV-I 0,0 C 48 % 73 % 0 % 1015,1 hPa 0,0 l/m 0,0 km/h (0 Bft) 0 min 0,0 km/h (0 Bft)
24.08.2009 02:19 23,2 C 14,4 C 0,0 UV-I 0,0 C 48 % 73 % 0 % 1014,5 hPa 0,0 l/m 0,0 km/h (0 Bft) 0 min 2,6 km/h (1 Bft)
24.08.2009 02:24 23,2 C 14,5 C 0,0 UV-I 0,0 C 48 % 73 % 0 % 1014,5 hPa 0,0 l/m 0,2 km/h (0 Bft) 0 min 2,6 km/h (1 Bft)
24.08.2009 02:29 23,1 C 14,5 C 0,0 UV-I 0,0 C 48 % 73 % 0 % 1014,5 hPa 0,0 l/m 0,7 km/h (0 Bft) 0 min 0,0 km/h (0 Bft)
24.08.2009 02:34 23,1 C 14,5 C 0,0 UV-I 0,0 C 48 % 73 % 0 % 1014,5 hPa 0,0 l/m 0,5 km/h (0 Bft) 0 min 0,0 km/h (0 Bft)
24.08.2009 02:39 23,0 C 14,4 C 0,0 UV-I 0,0 C 48 % 73 % 0 % 1014,3 hPa 0,0 l/m 0,0 km/h (0 Bft) 0 min 0,0 km/h (0 Bft)
24.08.2009 02:44 23,0 C 14,4 C 0,0 UV-I 0,0 C 48 % 73 % 0 % 1014,3 hPa 0,0 l/m 0,0 km/h (0 Bft) 0 min 0,0 km/h (0 Bft)
24.08.2009 02:49 23,0 C 14,3 C 0,0 UV-I 0,0 C 48 % 73 % 0 % 1014,3 hPa 0,0 l/m 0,0 km/h (0 Bft) 0 min 0,0 km/h (0 Bft)
24.08.2009 02:54 23,0 C 14,3 C 0,0 UV-I 0,0 C 48 % 73 % 0 % 1014,3 hPa 0,0 l/m 0,0 km/h (0 Bft) 0 min 0,0 km/h (0 Bft)
24.08.2009 02:59 23,0 C 14,2 C 0,0 UV-I 0,0 C 48 % 73 % 0 % 1014,2 hPa 0,0 l/m 0,0 km/h (0 Bft) 0 min 0,0 km/h (0 Bft)
24.08.2009 03:04 23,0 C 14,3 C 0,0 UV-I 0,0 C 48 % 74 % 0 % 1014,2 hPa 0,0 l/m 0,0 km/h (0 Bft) 0 min 0,0 km/h (0 Bft)
24.08.2009 03:09 22,9 C 14,1 C 0,0 UV-I 0,0 C 48 % 74 % 0 % 1014,2 hPa 0,0 l/m 0,0 km/h (0 Bft) 0 min 0,0 km/h (0 Bft)
24.08.2009 03:14 22,9 C 14,1 C 0,0 UV-I 0,0 C 48 % 74 % 0 % 1014,2 hPa 0,0 l/m 0,0 km/h (0 Bft) 0 min 0,0 km/h (0 Bft)
24.08.2009 03:19 22,9 C 14,0 C 0,0 UV-I 0,0 C 48 % 74 % 0 % 1013,9 hPa 0,0 l/m 0,0 km/h (0 Bft) 0 min 0,0 km/h (0 Bft)
24.08.2009 03:24 22,9 C 14,0 C 0,0 UV-I 0,0 C 48 % 74 % 0 % 1013,9 hPa 0,0 l/m 0,0 km/h (0 Bft) 0 min 0,0 km/h (0 Bft)
24.08.2009 03:29 22,8 C 14,0 C 0,0 UV-I 0,0 C 48 % 74 % 0 % 1013,9 hPa 0,0 l/m 0,0 km/h (0 Bft) 0 min 0,0 km/h (0 Bft)
24.08.2009 03:34 22,8 C 13,9 C 0,0 UV-I 0,0 C 48 % 74 % 0 % 1013,9 hPa 0,0 l/m 0,0 km/h (0 Bft) 0 min 0,0 km/h (0 Bft)
24.08.2009 03:39 22,8 C 13,9 C 0,0 UV-I 0,0 C 48 % 74 % 0 % 1013,7 hPa 0,0 l/m 0,0 km/h (0 Bft) 0 min 0,0 km/h (0 Bft)
24.08.2009 03:44 22,8 C 13,8 C 0,0 UV-I 0,0 C 48 % 75 % 0 % 1013,7 hPa 0,0 l/m 0,0 km/h (0 Bft) 0 min 0,0 km/h (0 Bft)
24.08.2009 03:49 22,8 C 13,9 C 0,0 UV-I 0,0 C 48 % 75 % 0 % 1013,7 hPa 0,0 l/m 0,0 km/h (0 Bft) 0 min 0,0 km/h (0 Bft)
24.08.2009 03:54 22,8 C 13,8 C 0,0 UV-I 0,0 C 48 % 75 % 0 % 1013,7 hPa 0,0 l/m 0,0 km/h (0 Bft) 0 min 0,0 km/h (0 Bft)
24.08.2009 03:59 22,8 C 13,7 C 0,0 UV-I 0,0 C 48 % 75 % 0 % 1013,4 hPa 0,0 l/m 0,0 km/h (0 Bft) 0 min 0,0 km/h (0 Bft)
24.08.2009 04:04 22,7 C 13,6 C 0,0 UV-I 0,0 C 49 % 76 % 0 % 1013,4 hPa 0,0 l/m 0,0 km/h (0 Bft) 0 min 0,0 km/h (0 Bft)
24.08.2009 04:09 22,7 C 13,6 C 0,0 UV-I 0,0 C 49 % 76 % 0 % 1013,4 hPa 0,0 l/m 0,0 km/h (0 Bft) 0 min 0,0 km/h (0 Bft)
24.08.2009 04:15 22,7 C 13,5 C 0,0 UV-I 0,0 C 49 % 76 % 0 % 1013,8 hPa 0,0 l/m 0,0 km/h (0 Bft) 0 min 0,0 km/h (0 Bft)
24.08.2009 04:16 22,7 C 13,5 C 0,0 UV-I 0,0 C 49 % 76 % 0 % 1013,8 hPa 0,0 l/m 0,0 km/h (0 Bft) 0 min 0,0 km/h (0 Bft)
24.08.2009 04:18 22,7 C 13,5 C 0,0 UV-I 0,0 C 48 % 76 % 0 % 1013,8 hPa 0,0 l/m 0,0 km/h (0 Bft) 0 min 0,0 km/h (0 Bft)
24.08.2009 04:20 22,7 C 13,5 C 0,0 UV-I 0,0 C 48 % 76 % 0 % 1013,8 hPa 0,0 l/m 0,0 km/h (0 Bft) 0 min 0,0 km/h (0 Bft)
24.08.2009 04:22 22,7 C 13,4 C 0,0 UV-I 0,0 C 49 % 77 % 0 % 1013,8 hPa 0,0 l/m 0,0 km/h (0 Bft) 0 min 0,0 km/h (0 Bft)
24.08.2009 04:24 22,7 C 13,5 C 0,0 UV-I 0,0 C 49 % 77 % 0 % 1013,8 hPa 0,0 l/m 0,0 km/h (0 Bft) 0 min 0,0 km/h (0 Bft)
24.08.2009 04:26 22,7 C 13,5 C 0,0 UV-I 0,0 C 49 % 77 % 0 % 1013,8 hPa 0,0 l/m 0,0 km/h (0 Bft) 0 min 0,0 km/h (0 Bft)
24.08.2009 04:28 22,6 C 13,3 C 0,0 UV-I 0,0 C 49 % 77 % 0 % 1013,8 hPa 0,0 l/m 0,0 km/h (0 Bft) 0 min 0,0 km/h (0 Bft)
24.08.2009 04:30 22,6 C 13,3 C 0,0 UV-I 0,0 C 49 % 77 % 0 % 1013,8 hPa 0,0 l/m 0,0 km/h (0 Bft) 0 min 0,0 km/h (0 Bft)
24.08.2009 04:32 22,6 C 13,3 C 0,0 UV-I 0,0 C 49 % 77 % 0 % 1013,8 hPa 0,0 l/m 0,0 km/h (0 Bft) 0 min 0,0 km/h (0 Bft)
24.08.2009 04:34 22,6 C 13,3 C 0,0 UV-I 0,0 C 49 % 77 % 0 % 1013,8 hPa 0,0 l/m 0,0 km/h (0 Bft) 0 min 0,0 km/h (0 Bft)
24.08.2009 04:36 22,6 C 13,2 C 0,0 UV-I 0,0 C 49 % 78 % 0 % 1012,9 hPa 0,0 l/m 0,0 km/h (0 Bft) 0 min 0,0 km/h (0 Bft)
24.08.2009 04:38 22,6 C 13,2 C 0,0 UV-I 0,0 C 49 % 78 % 0 % 1012,9 hPa 0,0 l/m 0,0 km/h (0 Bft) 0 min 0,0 km/h (0 Bft)
24.08.2009 04:40 22,6 C 13,3 C 0,0 UV-I 0,0 C 49 % 78 % 0 % 1012,9 hPa 0,0 l/m 0,0 km/h (0 Bft) 0 min 0,0 km/h (0 Bft)
24.08.2009 04:42 22,6 C 13,2 C 0,0 UV-I 0,0 C 49 % 78 % 0 % 1012,9 hPa 0,0 l/m 0,0 km/h (0 Bft) 0 min 0,0 km/h (0 Bft)
24.08.2009 04:44 22,6 C 13,2 C 0,0 UV-I 0,0 C 49 % 78 % 0 % 1012,9 hPa 0,0 l/m 0,0 km/h (0 Bft) 0 min 0,0 km/h (0 Bft)
24.08.2009 04:46 22,6 C 13,2 C 0,0 UV-I 0,0 C 49 % 78 % 0 % 1012,9 hPa 0,0 l/m 0,0 km/h (0 Bft) 0 min 0,0 km/h (0 Bft)
24.08.2009 04:48 22,5 C 13,1 C 0,0 UV-I 0,0 C 49 % 78 % 0 % 1012,9 hPa 0,0 l/m 0,0 km/h (0 Bft) 0 min 0,0 km/h (0 Bft)
24.08.2009 04:50 22,5 C 13,1 C 0,0 UV-I 0,0 C 49 % 78 % 0 % 1012,9 hPa 0,0 l/m 0,0 km/h (0 Bft) 0 min 0,0 km/h (0 Bft)
24.08.2009 04:52 22,5 C 13,1 C 0,0 UV-I 0,0 C 49 % 78 % 0 % 1012,9 hPa 0,0 l/m 0,0 km/h (0 Bft) 0 min 0,0 km/h (0 Bft)
24.08.2009 04:54 22,5 C 13,0 C 0,0 UV-I 0,0 C 49 % 78 % 0 % 1012,9 hPa 0,0 l/m 0,0 km/h (0 Bft) 0 min 0,0 km/h (0 Bft)
24.08.2009 04:56 22,5 C 13,1 C 0,0 UV-I 0,0 C 49 % 78 % 0 % 1012,6 hPa 0,0 l/m 0,0 km/h (0 Bft) 0 min 0,0 km/h (0 Bft)
24.08.2009 04:58 22,5 C 13,1 C 0,0 UV-I 0,0 C 49 % 78 % 0 % 1012,6 hPa 0,0 l/m 0,0 km/h (0 Bft) 0 min 0,0 km/h (0 Bft)
24.08.2009 05:00 22,4 C 13,0 C 0,0 UV-I 0,0 C 49 % 79 % 0 % 1012,6 hPa 0,0 l/m 0,0 km/h (0 Bft) 0 min 0,0 km/h (0 Bft)
24.08.2009 05:02 22,4 C 12,9 C 0,0 UV-I 0,0 C 49 % 79 % 0 % 1012,6 hPa 0,0 l/m 0,0 km/h (0 Bft) 0 min 0,0 km/h (0 Bft)
24.08.2009 05:04 22,4 C 12,9 C 0,0 UV-I 0,0 C 49 % 79 % 0 % 1012,6 hPa 0,0 l/m 0,0 km/h (0 Bft) 0 min 0,0 km/h (0 Bft)
24.08.2009 05:06 22,4 C 12,9 C 0,0 UV-I 0,0 C 49 % 79 % 0 % 1012,6 hPa 0,0 l/m 0,0 km/h (0 Bft) 0 min 0,0 km/h (0 Bft)
24.08.2009 05:08 22,4 C 12,9 C 0,0 UV-I 0,0 C 49 % 79 % 0 % 1012,6 hPa 0,0 l/m 0,0 km/h (0 Bft) 0 min 0,0 km/h (0 Bft)
24.08.2009 05:10 22,4 C 12,8 C 0,0 UV-I 0,0 C 49 % 79 % 0 % 1012,6 hPa 0,0 l/m 0,0 km/h (0 Bft) 0 min 0,0 km/h (0 Bft)
24.08.2009 05:12 22,4 C 12,8 C 0,0 UV-I 0,0 C 49 % 79 % 0 % 1012,6 hPa 0,0 l/m 0,0 km/h (0 Bft) 0 min 0,0 km/h (0 Bft)
24.08.2009 05:14 22,4 C 12,9 C 0,0 UV-I 0,0 C 49 % 79 % 0 % 1012,6 hPa 0,0 l/m 0,0 km/h (0 Bft) 0 min 0,0 km/h (0 Bft)
24.08.2009 05:16 22,4 C 12,8 C 0,0 UV-I 0,0 C 49 % 79 % 0 % 1012,4 hPa 0,0 l/m 0,0 km/h (0 Bft) 0 min 0,0 km/h (0 Bft)
24.08.2009 05:18 22,4 C 12,8 C 0,0 UV-I 0,0 C 49 % 79 % 0 % 1012,4 hPa 0,0 l/m 0,0 km/h (0 Bft) 0 min 0,0 km/h (0 Bft)
24.08.2009 05:20 22,4 C 12,8 C 0,0 UV-I 0,0 C 49 % 80 % 0 % 1012,4 hPa 0,0 l/m 0,0 km/h (0 Bft) 0 min 0,0 km/h (0 Bft)
24.08.2009 05:22 22,4 C 12,7 C 0,0 UV-I 0,0 C 49 % 80 % 0 % 1012,4 hPa 0,0 l/m 0,0 km/h (0 Bft) 0 min 0,0 km/h (0 Bft)
24.08.2009 05:24 22,4 C 12,7 C 0,0 UV-I 0,0 C 49 % 80 % 0 % 1012,4 hPa 0,0 l/m 0,0 km/h (0 Bft) 0 min 0,0 km/h (0 Bft)
24.08.2009 05:26 22,4 C 12,7 C 0,0 UV-I 0,0 C 49 % 80 % 0 % 1012,4 hPa 0,0 l/m 0,0 km/h (0 Bft) 0 min 0,0 km/h (0 Bft)
24.08.2009 05:28 22,4 C 12,6 C 0,0 UV-I 0,0 C 49 % 80 % 0 % 1012,4 hPa 0,0 l/m 0,0 km/h (0 Bft) 0 min 0,0 km/h (0 Bft)
24.08.2009 05:30 22,2 C 12,7 C 0,0 UV-I 0,0 C 49 % 80 % 0 % 1012,4 hPa 0,0 l/m 0,0 km/h (0 Bft) 0 min 0,0 km/h (0 Bft)
24.08.2009 05:32 22,2 C 12,7 C 0,0 UV-I 0,0 C 49 % 80 % 0 % 1012,4 hPa 0,0 l/m 0,0 km/h (0 Bft) 0 min 0,0 km/h (0 Bft)
24.08.2009 05:34 22,3 C 12,6 C 0,0 UV-I 0,0 C 49 % 80 % 0 % 1012,4 hPa 0,0 l/m 0,0 km/h (0 Bft) 0 min 0,0 km/h (0 Bft)
24.08.2009 05:36 22,3 C 12,5 C 0,0 UV-I 0,0 C 49 % 80 % 0 % 1012,5 hPa 0,0 l/m 0,0 km/h (0 Bft) 0 min 0,0 km/h (0 Bft)
24.08.2009 05:38 22,3 C 12,5 C 0,0 UV-I 0,0 C 49 % 80 % 0 % 1012,5 hPa 0,0 l/m 0,0 km/h (0 Bft) 0 min 0,0 km/h (0 Bft)
24.08.2009 05:40 22,3 C 12,4 C 0,0 UV-I 0,0 C 49 % 80 % 0 % 1012,5 hPa 0,0 l/m 0,0 km/h (0 Bft) 0 min 0,0 km/h (0 Bft)
24.08.2009 05:42 22,3 C 12,4 C 0,0 UV-I 0,0 C 49 % 80 % 0 % 1012,5 hPa 0,0 l/m 0,0 km/h (0 Bft) 0 min 0,0 km/h (0 Bft)
24.08.2009 05:44 22,3 C 12,4 C 0,0 UV-I 0,0 C 49 % 81 % 0 % 1012,5 hPa 0,0 l/m 0,0 km/h (0 Bft) 0 min 0,0 km/h (0 Bft)
24.08.2009 05:46 22,3 C 12,5 C 0,0 UV-I 0,0 C 49 % 81 % 0 % 1012,5 hPa 0,0 l/m 0,0 km/h (0 Bft) 0 min 0,0 km/h (0 Bft)
24.08.2009 05:48 22,3 C 12,4 C 0,0 UV-I 0,0 C 49 % 81 % 0 % 1012,5 hPa 0,0 l/m 0,0 km/h (0 Bft) 0 min 0,0 km/h (0 Bft)
24.08.2009 05:50 22,3 C 12,4 C 0,0 UV-I 0,0 C 49 % 81 % 0 % 1012,5 hPa 0,0 l/m 0,0 km/h (0 Bft) 0 min 0,0 km/h (0 Bft)
24.08.2009 05:52 22,3 C 12,3 C 0,0 UV-I 0,0 C 50 % 81 % 0 % 1012,5 hPa 0,0 l/m 0,0 km/h (0 Bft) 0 min 0,0 km/h (0 Bft)
24.08.2009 05:54 22,3 C 12,3 C 0,0 UV-I 0,0 C 49 % 81 % 0 % 1012,5 hPa 0,0 l/m 0,0 km/h (0 Bft) 0 min 0,0 km/h (0 Bft)
24.08.2009 05:56 22,3 C 12,3 C 0,0 UV-I 0,0 C 50 % 81 % 0 % 1012,4 hPa 0,0 l/m 0,0 km/h (0 Bft) 0 min 0,0 km/h (0 Bft)
24.08.2009 05:58 22,3 C 12,3 C 0,0 UV-I 0,0 C 49 % 81 % 0 % 1012,4 hPa 0,0 l/m 0,0 km/h (0 Bft) 0 min 0,0 km/h (0 Bft)
24.08.2009 06:00 22,3 C 12,3 C 0,0 UV-I 0,0 C 49 % 81 % 0 % 1012,4 hPa 0,0 l/m 0,0 km/h (0 Bft) 0 min 0,0 km/h (0 Bft)
24.08.2009 06:02 22,3 C 12,3 C 0,0 UV-I 0,0 C 49 % 81 % 0 % 1012,4 hPa 0,0 l/m 0,0 km/h (0 Bft) 0 min 0,0 km/h (0 Bft)
24.08.2009 06:04 22,3 C 12,3 C 0,0 UV-I 0,0 C 49 % 81 % 0 % 1012,4 hPa 0,0 l/m 0,0 km/h (0 Bft) 0 min 0,0 km/h (0 Bft)
24.08.2009 06:06 22,2 C 12,1 C 0,0 UV-I 0,0 C 49 % 81 % 0 % 1012,4 hPa 0,0 l/m 0,0 km/h (0 Bft) 0 min 0,0 km/h (0 Bft)
24.08.2009 06:08 22,2 C 12,1 C 0,0 UV-I 0,0 C 50 % 81 % 0 % 1012,4 hPa 0,0 l/m 0,0 km/h (0 Bft) 0 min 0,0 km/h (0 Bft)
24.08.2009 06:10 22,2 C 12,1 C 0,0 UV-I 0,0 C 50 % 82 % 0 % 1012,4 hPa 0,0 l/m 0,0 km/h (0 Bft) 0 min 0,0 km/h (0 Bft)
24.08.2009 06:12 22,2 C 12,1 C 0,0 UV-I 0,0 C 50 % 82 % 0 % 1012,4 hPa 0,0 l/m 0,0 km/h (0 Bft) 0 min 0,0 km/h (0 Bft)
24.08.2009 06:14 22,2 C 12,1 C 0,0 UV-I 0,0 C 50 % 82 % 0 % 1012,4 hPa 0,0 l/m 0,0 km/h (0 Bft) 0 min 0,0 km/h (0 Bft)
24.08.2009 06:16 22,2 C 12,0 C 0,0 UV-I 0,0 C 50 % 82 % 0 % 1012,6 hPa 0,0 l/m 0,0 km/h (0 Bft) 0 min 0,0 km/h (0 Bft)
24.08.2009 06:18 22,2 C 12,0 C 0,0 UV-I 0,0 C 50 % 82 % 0 % 1012,6 hPa 0,0 l/m 0,0 km/h (0 Bft) 0 min 0,0 km/h (0 Bft)
24.08.2009 06:20 22,2 C 12,1 C 0,0 UV-I 0,0 C 50 % 82 % 0 % 1012,6 hPa 0,0 l/m 0,0 km/h (0 Bft) 0 min 0,0 km/h (0 Bft)
24.08.2009 06:22 22,2 C 12,0 C 0,0 UV-I 0,0 C 50 % 82 % 0 % 1012,6 hPa 0,0 l/m 0,0 km/h (0 Bft) 0 min 0,0 km/h (0 Bft)
24.08.2009 06:24 22,2 C 12,0 C 0,0 UV-I 0,0 C 50 % 82 % 0 % 1012,6 hPa 0,0 l/m 0,0 km/h (0 Bft) 0 min 0,0 km/h (0 Bft)
24.08.2009 06:26 22,2 C 11,9 C 0,0 UV-I 0,0 C 50 % 82 % 0 % 1012,6 hPa 0,0 l/m 0,0 km/h (0 Bft) 0 min 0,0 km/h (0 Bft)
24.08.2009 06:28 22,2 C 11,9 C 0,0 UV-I 0,0 C 50 % 83 % 0 % 1012,6 hPa 0,0 l/m 0,0 km/h (0 Bft) 0 min 0,0 km/h (0 Bft)
24.08.2009 06:32 22,2 C 11,8 C 0,0 UV-I 0,0 C 50 % 83 % 0 % 1012,6 hPa 0,0 l/m 0,0 km/h (0 Bft) 0 min 0,0 km/h (0 Bft)
24.08.2009 06:34 22,2 C 11,9 C 0,0 UV-I 0,0 C 50 % 83 % 0 % 1012,6 hPa 0,0 l/m 0,0 km/h (0 Bft) 0 min 0,0 km/h (0 Bft)
24.08.2009 06:36 22,2 C 11,9 C 0,0 UV-I 0,0 C 50 % 83 % 0 % 1011,8 hPa 0,0 l/m 0,0 km/h (0 Bft) 0 min 0,0 km/h (0 Bft)
24.08.2009 06:38 22,2 C 11,8 C 0,0 UV-I 0,0 C 50 % 83 % 0 % 1011,8 hPa 0,0 l/m 0,0 km/h (0 Bft) 0 min 0,0 km/h (0 Bft)
24.08.2009 06:40 22,2 C 11,9 C 0,0 UV-I 0,0 C 50 % 83 % 0 % 1011,8 hPa 0,0 l/m 0,0 km/h (0 Bft) 0 min 0,0 km/h (0 Bft)
24.08.2009 06:42 22,2 C 11,9 C 0,0 UV-I 0,0 C 50 % 83 % 0 % 1011,8 hPa 0,0 l/m 0,0 km/h (0 Bft) 0 min 0,0 km/h (0 Bft)
24.08.2009 06:44 22,2 C 11,7 C 0,0 UV-I 0,0 C 50 % 83 % 0 % 1011,8 hPa 0,0 l/m 0,0 km/h (0 Bft) 0 min 0,0 km/h (0 Bft)
24.08.2009 06:46 22,2 C 11,8 C 0,0 UV-I 0,0 C 50 % 84 % 0 % 1011,8 hPa 0,0 l/m 0,0 km/h (0 Bft) 0 min 0,0 km/h (0 Bft)
24.08.2009 06:48 22,2 C 11,8 C 0,0 UV-I 0,0 C 50 % 84 % 0 % 1011,8 hPa 0,0 l/m 0,0 km/h (0 Bft) 0 min 0,0 km/h (0 Bft)
24.08.2009 06:52 22,2 C 11,9 C 0,0 UV-I 0,0 C 50 % 84 % 0 % 1011,8 hPa 0,0 l/m 0,0 km/h (0 Bft) 0 min 0,0 km/h (0 Bft)
24.08.2009 06:54 22,2 C 11,8 C 0,0 UV-I 0,0 C 50 % 84 % 0 % 1011,8 hPa 0,0 l/m 0,0 km/h (0 Bft) 0 min 0,0 km/h (0 Bft)
24.08.2009 06:56 22,2 C 11,9 C 0,0 UV-I 0,0 C 50 % 84 % 0 % 1012,6 hPa 0,0 l/m 0,0 km/h (0 Bft) 0 min 0,0 km/h (0 Bft)
24.08.2009 06:58 22,2 C 12,0 C 0,0 UV-I 0,0 C 50 % 84 % 0 % 1012,6 hPa 0,0 l/m 0,0 km/h (0 Bft) 0 min 0,0 km/h (0 Bft)
24.08.2009 07:00 22,2 C 12,1 C 0,0 UV-I 0,0 C 50 % 84 % 0 % 1012,6 hPa 0,0 l/m 0,0 km/h (0 Bft) 0 min 0,0 km/h (0 Bft)
24.08.2009 07:02 22,2 C 12,0 C 0,0 UV-I 0,2 C 50 % 84 % 6 % 1012,6 hPa 0,0 l/m 0,0 km/h (0 Bft) 0 min 3,1 km/h (1 Bft)
24.08.2009 07:04 22,2 C 12,0 C 0,0 UV-I 0,3 C 50 % 84 % 9 % 1012,6 hPa 0,0 l/m 0,0 km/h (0 Bft) 0 min 3,1 km/h (1 Bft)
24.08.2009 07:06 22,1 C 12,1 C 0,0 UV-I 0,3 C 50 % 84 % 9 % 1012,6 hPa 0,0 l/m 0,0 km/h (0 Bft) 0 min 0,0 km/h (0 Bft)
24.08.2009 07:08 22,1 C 12,2 C 0,0 UV-I 0,4 C 50 % 84 % 11 % 1012,6 hPa 0,0 l/m 0,0 km/h (0 Bft) 0 min 0,0 km/h (0 Bft)
24.08.2009 07:10 22,1 C 12,2 C 0,0 UV-I 0,5 C 50 % 84 % 14 % 1012,6 hPa 0,0 l/m 0,0 km/h (0 Bft) 0 min 0,0 km/h (0 Bft)
24.08.2009 07:12 22,1 C 12,3 C 0,0 UV-I 0,5 C 50 % 84 % 14 % 1012,6 hPa 0,0 l/m 0,2 km/h (0 Bft) 0 min 0,0 km/h (0 Bft)
24.08.2009 07:14 22,1 C 12,4 C 0,0 UV-I 0,6 C 50 % 85 % 17 % 1012,6 hPa 0,0 l/m 0,0 km/h (0 Bft) 0 min 0,0 km/h (0 Bft)
24.08.2009 07:16 22,1 C 12,4 C 0,0 UV-I 0,6 C 50 % 84 % 17 % 1011,6 hPa 0,0 l/m 0,2 km/h (0 Bft) 0 min 3,4 km/h (1 Bft)
24.08.2009 07:18 22,1 C 12,6 C 0,1 UV-I 0,7 C 50 % 84 % 20 % 1011,6 hPa 0,0 l/m 0,2 km/h (0 Bft) 0 min 3,4 km/h (1 Bft)
24.08.2009 07:20 22,1 C 12,6 C 0,1 UV-I 0,8 C 50 % 84 % 23 % 1011,6 hPa 0,0 l/m 0,2 km/h (0 Bft) 0 min 4,8 km/h (1 Bft)
24.08.2009 07:22 22,1 C 12,7 C 0,1 UV-I 0,7 C 50 % 84 % 20 % 1011,6 hPa 0,0 l/m 0,2 km/h (0 Bft) 0 min 6,0 km/h (2 Bft)
24.08.2009 07:24 22,1 C 12,8 C 0,1 UV-I 0,8 C 50 % 84 % 23 % 1011,6 hPa 0,0 l/m 0,5 km/h (0 Bft) 0 min 7,0 km/h (2 Bft)
24.08.2009 07:26 22,1 C 12,9 C 0,1 UV-I 0,8 C 50 % 84 % 23 % 1011,6 hPa 0,0 l/m 0,5 km/h (0 Bft) 0 min 7,0 km/h (2 Bft)
24.08.2009 07:28 22,1 C 13,1 C 0,0 UV-I 0,7 C 50 % 84 % 20 % 1011,6 hPa 0,0 l/m 0,5 km/h (0 Bft) 0 min 0,0 km/h (0 Bft)
24.08.2009 07:30 22,1 C 13,1 C 0,0 UV-I 0,8 C 50 % 83 % 23 % 1011,6 hPa 0,0 l/m 0,5 km/h (0 Bft) 0 min 0,0 km/h (0 Bft)
24.08.2009 07:32 22,1 C 13,1 C 0,1 UV-I 0,9 C 50 % 83 % 26 % 1011,6 hPa 0,0 l/m 0,5 km/h (0 Bft) 0 min 7,0 km/h (2 Bft)
24.08.2009 07:34 22,1 C 13,3 C 0,1 UV-I 0,8 C 50 % 83 % 23 % 1011,6 hPa 0,0 l/m 0,5 km/h (0 Bft) 0 min 3,8 km/h (1 Bft)
24.08.2009 07:36 22,1 C 13,2 C 0,1 UV-I 0,9 C 50 % 83 % 26 % 1012,4 hPa 0,0 l/m 0,2 km/h (0 Bft) 0 min 0,0 km/h (0 Bft)
24.08.2009 07:42 22,1 C 13,4 C 0,3 UV-I 0,9 C 50 % 82 % 26 % 1012,4 hPa 0,0 l/m 0,7 km/h (0 Bft) 0 min 3,8 km/h (1 Bft)
24.08.2009 07:44 22,1 C 13,5 C 0,3 UV-I 0,9 C 50 % 82 % 26 % 1012,4 hPa 0,0 l/m 0,7 km/h (0 Bft) 0 min 3,8 km/h (1 Bft)
24.08.2009 07:46 22,1 C 13,7 C 0,3 UV-I 0,8 C 50 % 82 % 23 % 1012,4 hPa 0,0 l/m 1,0 km/h (0 Bft) 0 min 3,6 km/h (1 Bft)
24.08.2009 07:48 22,1 C 13,7 C 0,4 UV-I 0,9 C 50 % 82 % 26 % 1012,4 hPa 0,0 l/m 1,0 km/h (0 Bft) 0 min 3,6 km/h (1 Bft)
24.08.2009 07:50 22,1 C 13,7 C 0,4 UV-I 1,0 C 50 % 82 % 29 % 1012,4 hPa 0,0 l/m 1,2 km/h (1 Bft) 0 min 4,3 km/h (1 Bft)
24.08.2009 07:52 22,1 C 13,9 C 0,5 UV-I 0,8 C 50 % 82 % 23 % 1012,4 hPa 0,0 l/m 1,4 km/h (1 Bft) 0 min 4,6 km/h (1 Bft)
24.08.2009 07:54 22,1 C 13,9 C 0,5 UV-I 0,9 C 50 % 81 % 26 % 1012,4 hPa 0,0 l/m 1,2 km/h (1 Bft) 0 min 4,6 km/h (1 Bft)
24.08.2009 07:56 22,1 C 14,0 C 0,5 UV-I 0,9 C 50 % 81 % 26 % 1011,4 hPa 0,0 l/m 1,0 km/h (0 Bft) 0 min 2,6 km/h (1 Bft)
24.08.2009 07:58 22,1 C 14,0 C 0,5 UV-I 0,9 C 50 % 81 % 26 % 1011,4 hPa 0,0 l/m 1,0 km/h (0 Bft) 0 min 4,8 km/h (1 Bft)
24.08.2009 08:00 22,1 C 14,1 C 0,5 UV-I 0,8 C 50 % 81 % 23 % 1011,4 hPa 0,0 l/m 1,0 km/h (0 Bft) 0 min 4,8 km/h (1 Bft)
24.08.2009 08:02 22,1 C 14,1 C 0,6 UV-I 0,9 C 50 % 81 % 26 % 1011,4 hPa 0,0 l/m 1,0 km/h (0 Bft) 0 min 7,7 km/h (2 Bft)
24.08.2009 08:04 22,1 C 14,2 C 0,6 UV-I 0,8 C 50 % 81 % 23 % 1011,4 hPa 0,0 l/m 0,7 km/h (0 Bft) 0 min 0,0 km/h (0 Bft)
24.08.2009 08:06 22,1 C 14,2 C 0,6 UV-I 0,9 C 51 % 80 % 26 % 1011,4 hPa 0,0 l/m 1,2 km/h (1 Bft) 0 min 11,1 km/h (2 Bft)
24.08.2009 08:08 22,1 C 14,3 C 0,5 UV-I 0,8 C 51 % 80 % 23 % 1011,4 hPa 0,0 l/m 1,2 km/h (1 Bft) 0 min 11,1 km/h (2 Bft)
24.08.2009 08:10 22,2 C 14,4 C 0,5 UV-I 0,7 C 51 % 80 % 20 % 1011,4 hPa 0,0 l/m 1,2 km/h (1 Bft) 0 min 0,0 km/h (0 Bft)
24.08.2009 08:12 22,1 C 14,4 C 0,6 UV-I 0,8 C 51 % 80 % 23 % 1011,4 hPa 0,0 l/m 1,4 km/h (1 Bft) 0 min 11,1 km/h (2 Bft)
24.08.2009 08:14 22,2 C 14,5 C 0,6 UV-I 0,7 C 51 % 80 % 20 % 1011,4 hPa 0,0 l/m 1,7 km/h (1 Bft) 0 min 8,9 km/h (2 Bft)
24.08.2009 08:16 22,2 C 14,5 C 0,6 UV-I 0,7 C 51 % 80 % 20 % 1011,4 hPa 0,0 l/m 1,7 km/h (1 Bft) 0 min 2,9 km/h (1 Bft)
24.08.2009 08:18 22,2 C 14,7 C 0,7 UV-I 0,6 C 51 % 80 % 17 % 1011,4 hPa 0,0 l/m 1,2 km/h (1 Bft) 0 min 3,4 km/h (1 Bft)
24.08.2009 08:20 22,1 C 14,6 C 0,7 UV-I 0,8 C 51 % 80 % 23 % 1011,4 hPa 0,0 l/m 1,4 km/h (1 Bft) 0 min 5,5 km/h (1 Bft)
24.08.2009 08:22 22,2 C 14,7 C 0,9 UV-I 0,7 C 51 % 80 % 20 % 1011,4 hPa 0,0 l/m 1,7 km/h (1 Bft) 0 min 5,5 km/h (1 Bft)
24.08.2009 08:24 22,1 C 14,9 C 0,9 UV-I 0,6 C 51 % 80 % 17 % 1011,4 hPa 0,0 l/m 1,2 km/h (1 Bft) 0 min 2,9 km/h (1 Bft)
24.08.2009 08:26 22,2 C 14,9 C 0,9 UV-I 0,7 C 51 % 79 % 20 % 1011,4 hPa 0,0 l/m 1,4 km/h (1 Bft) 0 min 2,9 km/h (1 Bft)
24.08.2009 08:28 22,2 C 14,9 C 0,9 UV-I 0,7 C 51 % 79 % 20 % 1011,4 hPa 0,0 l/m 1,4 km/h (1 Bft) 0 min 3,6 km/h (1 Bft)
24.08.2009 08:30 22,1 C 15,0 C 0,9 UV-I 0,8 C 51 % 79 % 23 % 1011,4 hPa 0,0 l/m 1,9 km/h (1 Bft) 0 min 3,6 km/h (1 Bft)
24.08.2009 08:32 22,2 C 15,0 C 0,9 UV-I 0,8 C 51 % 79 % 23 % 1011,4 hPa 0,0 l/m 1,9 km/h (1 Bft) 0 min 4,3 km/h (1 Bft)
24.08.2009 08:34 22,1 C 15,2 C 0,9 UV-I 0,7 C 51 % 79 % 20 % 1011,4 hPa 0,0 l/m 1,9 km/h (1 Bft) 0 min 0,0 km/h (0 Bft)
24.08.2009 08:38 22,2 C 15,2 C 0,8 UV-I 0,9 C 51 % 78 % 26 % 1011,4 hPa 0,0 l/m 1,9 km/h (1 Bft) 0 min 0,0 km/h (0 Bft)
24.08.2009 08:40 22,2 C 15,3 C 0,8 UV-I 0,8 C 51 % 78 % 23 % 1011,4 hPa 0,0 l/m 1,7 km/h (1 Bft) 0 min 4,6 km/h (1 Bft)
24.08.2009 08:44 22,2 C 15,4 C 1,0 UV-I 0,9 C 51 % 78 % 26 % 1011,4 hPa 0,0 l/m 1,7 km/h (1 Bft) 0 min 4,6 km/h (1 Bft)
24.08.2009 08:46 22,2 C 15,6 C 1,0 UV-I 0,7 C 51 % 78 % 20 % 1011,4 hPa 0,0 l/m 1,9 km/h (1 Bft) 0 min 0,0 km/h (0 Bft)
24.08.2009 08:48 22,2 C 15,6 C 1,1 UV-I 0,9 C 51 % 78 % 26 % 1011,4 hPa 0,0 l/m 2,6 km/h (1 Bft) 0 min 7,9 km/h (2 Bft)
24.08.2009 08:50 22,2 C 15,7 C 1,1 UV-I 0,8 C 51 % 78 % 23 % 1011,4 hPa 0,0 l/m 2,9 km/h (1 Bft) 0 min 7,9 km/h (2 Bft)
24.08.2009 08:52 22,2 C 15,8 C 1,1 UV-I 0,9 C 51 % 78 % 26 % 1011,4 hPa 0,0 l/m 3,4 km/h (1 Bft) 0 min 18,0 km/h (3 Bft)
24.08.2009 08:54 22,2 C 15,8 C 1,1 UV-I 0,9 C 51 % 77 % 26 % 1011,4 hPa 0,0 l/m 3,8 km/h (1 Bft) 0 min 10,6 km/h (2 Bft)
24.08.2009 08:56 22,2 C 16,0 C 1,1 UV-I 0,8 C 51 % 77 % 23 % 1011,6 hPa 0,0 l/m 4,6 km/h (1 Bft) 0 min 7,2 km/h (2 Bft)
24.08.2009 08:58 22,2 C 16,1 C 1,0 UV-I 0,8 C 51 % 77 % 23 % 1011,6 hPa 0,0 l/m 5,1 km/h (1 Bft) 0 min 9,9 km/h (2 Bft)
24.08.2009 09:00 22,2 C 16,1 C 1,0 UV-I 0,8 C 51 % 77 % 23 % 1011,6 hPa 0,0 l/m 4,1 km/h (1 Bft) 0 min 9,9 km/h (2 Bft)
24.08.2009 09:04 22,2 C 16,2 C 1,2 UV-I 0,8 C 51 % 76 % 23 % 1011,6 hPa 0,0 l/m 5,1 km/h (1 Bft) 0 min 13,5 km/h (3 Bft)
24.08.2009 09:06 22,2 C 16,3 C 1,2 UV-I 0,8 C 51 % 76 % 23 % 1011,6 hPa 0,0 l/m 5,3 km/h (1 Bft) 0 min 7,2 km/h (2 Bft)
24.08.2009 09:08 22,2 C 16,3 C 1,1 UV-I 0,9 C 51 % 76 % 26 % 1011,6 hPa 0,0 l/m 5,8 km/h (2 Bft) 0 min 10,1 km/h (2 Bft)
24.08.2009 09:10 22,2 C 16,4 C 1,1 UV-I 0,9 C 51 % 76 % 26 % 1011,6 hPa 0,0 l/m 6,5 km/h (2 Bft) 0 min 10,3 km/h (2 Bft)
24.08.2009 09:12 22,2 C 16,5 C 1,2 UV-I 0,8 C 51 % 75 % 23 % 1011,6 hPa 0,0 l/m 7,5 km/h (2 Bft) 0 min 22,1 km/h (4 Bft)
24.08.2009 09:14 22,2 C 16,5 C 1,2 UV-I 0,9 C 51 % 75 % 26 % 1011,6 hPa 0,0 l/m 7,0 km/h (2 Bft) 0 min 15,4 km/h (3 Bft)
24.08.2009 09:16 22,2 C 16,6 C 1,2 UV-I 0,9 C 52 % 75 % 26 % 1010,6 hPa 0,0 l/m 7,7 km/h (2 Bft) 0 min 14,0 km/h (3 Bft)
24.08.2009 09:18 22,2 C 16,7 C 1,3 UV-I 0,9 C 52 % 75 % 26 % 1010,6 hPa 0,0 l/m 7,9 km/h (2 Bft) 0 min 14,0 km/h (3 Bft)
24.08.2009 09:20 22,2 C 16,8 C 1,3 UV-I 0,9 C 52 % 75 % 26 % 1010,6 hPa 0,0 l/m 6,3 km/h (2 Bft) 0 min 5,8 km/h (2 Bft)
24.08.2009 09:22 22,2 C 16,8 C 1,4 UV-I 0,9 C 52 % 75 % 26 % 1010,6 hPa 0,0 l/m 6,5 km/h (2 Bft) 0 min 13,5 km/h (3 Bft)
24.08.2009 09:24 22,2 C 16,9 C 1,4 UV-I 0,8 C 52 % 74 % 23 % 1010,6 hPa 0,0 l/m 6,0 km/h (2 Bft) 0 min 13,5 km/h (3 Bft)
24.08.2009 09:26 22,2 C 17,1 C 1,4 UV-I 0,7 C 52 % 75 % 20 % 1010,6 hPa 0,0 l/m 5,3 km/h (1 Bft) 0 min 4,3 km/h (1 Bft)
24.08.2009 09:30 22,2 C 17,1 C 1,2 UV-I 0,9 C 52 % 74 % 26 % 1010,6 hPa 0,0 l/m 4,3 km/h (1 Bft) 0 min 4,3 km/h (1 Bft)
24.08.2009 09:32 22,2 C 17,3 C 1,1 UV-I 0,7 C 52 % 74 % 20 % 1010,6 hPa 0,0 l/m 4,1 km/h (1 Bft) 0 min 6,3 km/h (2 Bft)
24.08.2009 09:34 22,2 C 17,3 C 1,1 UV-I 0,8 C 52 % 74 % 23 % 1010,6 hPa 0,0 l/m 4,1 km/h (1 Bft) 0 min 10,8 km/h (2 Bft)
24.08.2009 09:36 22,2 C 17,5 C 1,1 UV-I 0,7 C 52 % 73 % 20 % 1010,4 hPa 0,0 l/m 4,6 km/h (1 Bft) 0 min 10,8 km/h (2 Bft)
24.08.2009 09:38 22,2 C 17,5 C 1,3 UV-I 0,8 C 52 % 73 % 23 % 1010,4 hPa 0,0 l/m 5,3 km/h (1 Bft) 0 min 8,2 km/h (2 Bft)
24.08.2009 09:40 22,2 C 17,6 C 1,3 UV-I 0,8 C 52 % 73 % 23 % 1010,4 hPa 0,0 l/m 6,0 km/h (2 Bft) 0 min 6,5 km/h (2 Bft)
24.08.2009 09:46 22,2 C 17,8 C 1,4 UV-I 0,9 C 52 % 73 % 26 % 1010,4 hPa 0,0 l/m 5,8 km/h (2 Bft) 0 min 15,2 km/h (3 Bft)
24.08.2009 09:48 22,2 C 17,9 C 1,5 UV-I 0,8 C 52 % 73 % 23 % 1010,4 hPa 0,0 l/m 6,0 km/h (2 Bft) 0 min 7,7 km/h (2 Bft)
24.08.2009 09:50 22,2 C 17,9 C 1,5 UV-I 1,1 C 52 % 73 % 31 % 1010,4 hPa 0,0 l/m 5,8 km/h (2 Bft) 0 min 7,2 km/h (2 Bft)
24.08.2009 09:52 22,2 C 18,0 C 1,4 UV-I 2,1 C 52 % 72 % 60 % 1010,4 hPa 0,0 l/m 5,5 km/h (1 Bft) 0 min 10,6 km/h (2 Bft)
24.08.2009 09:54 22,2 C 18,0 C 1,4 UV-I 3,2 C 52 % 72 % 91 % 1010,4 hPa 0,0 l/m 6,0 km/h (2 Bft) 2 min 11,5 km/h (2 Bft)
24.08.2009 09:56 22,2 C 18,1 C 1,4 UV-I 3,6 C 52 % 72 % 100 % 1010,4 hPa 0,0 l/m 7,2 km/h (2 Bft) 2 min 14,9 km/h (3 Bft)
24.08.2009 09:58 22,3 C 18,3 C 1,7 UV-I 3,9 C 52 % 71 % 100 % 1010,4 hPa 0,0 l/m 7,9 km/h (2 Bft) 2 min 15,4 km/h (3 Bft)
24.08.2009 10:00 22,3 C 18,3 C 1,7 UV-I 4,3 C 52 % 71 % 100 % 1010,4 hPa 0,0 l/m 7,5 km/h (2 Bft) 2 min 3,6 km/h (1 Bft)
24.08.2009 10:02 22,2 C 18,5 C 2,4 UV-I 4,6 C 52 % 71 % 100 % 1010,4 hPa 0,0 l/m 8,4 km/h (2 Bft) 2 min 14,2 km/h (3 Bft)
24.08.2009 10:06 22,3 C 18,5 C 2,4 UV-I 5,0 C 52 % 71 % 100 % 1010,4 hPa 0,0 l/m 7,7 km/h (2 Bft) 2 min 14,2 km/h (3 Bft)
24.08.2009 10:08 22,3 C 18,6 C 2,4 UV-I 5,1 C 52 % 70 % 100 % 1010,4 hPa 0,0 l/m 7,0 km/h (2 Bft) 2 min 6,7 km/h (2 Bft)
24.08.2009 10:10 22,3 C 18,8 C 2,4 UV-I 5,3 C 53 % 71 % 100 % 1010,4 hPa 0,0 l/m 6,3 km/h (2 Bft) 2 min 3,8 km/h (1 Bft)
24.08.2009 10:12 22,3 C 18,9 C 7,2 UV-I 5,6 C 53 % 70 % 100 % 1010,4 hPa 0,0 l/m 6,0 km/h (2 Bft) 2 min 7,5 km/h (2 Bft)
24.08.2009 10:14 22,3 C 19,1 C 7,2 UV-I 5,7 C 53 % 70 % 100 % 1010,4 hPa 0,0 l/m 5,5 km/h (1 Bft) 2 min 13,0 km/h (3 Bft)
24.08.2009 10:16 22,2 C 19,2 C 7,2 UV-I 5,7 C 53 % 69 % 100 % 1010,6 hPa 0,0 l/m 4,8 km/h (1 Bft) 2 min 13,0 km/h (3 Bft)
24.08.2009 10:18 22,2 C 19,2 C 6,7 UV-I 5,9 C 53 % 68 % 100 % 1010,6 hPa 0,0 l/m 5,1 km/h (1 Bft) 2 min 17,6 km/h (3 Bft)
24.08.2009 10:20 22,2 C 19,5 C 6,7 UV-I 5,3 C 53 % 68 % 100 % 1010,6 hPa 0,0 l/m 6,7 km/h (2 Bft) 2 min 6,0 km/h (2 Bft)
24.08.2009 10:24 22,4 C 19,6 C 7,0 UV-I 5,3 C 53 % 68 % 100 % 1010,6 hPa 0,0 l/m 7,0 km/h (2 Bft) 2 min 9,1 km/h (2 Bft)
24.08.2009 10:26 22,4 C 19,9 C 7,0 UV-I 5,1 C 53 % 67 % 100 % 1010,6 hPa 0,0 l/m 7,7 km/h (2 Bft) 2 min 14,2 km/h (3 Bft)
24.08.2009 10:28 22,4 C 19,9 C 8,3 UV-I 5,1 C 53 % 67 % 100 % 1010,6 hPa 0,0 l/m 8,2 km/h (2 Bft) 2 min 14,2 km/h (3 Bft)
24.08.2009 10:30 22,4 C 20,1 C 8,3 UV-I 4,9 C 53 % 67 % 100 % 1010,6 hPa 0,0 l/m 6,3 km/h (2 Bft) 2 min 7,2 km/h (2 Bft)
24.08.2009 10:34 22,4 C 20,3 C 11,9 UV-I 5,2 C 53 % 66 % 100 % 1010,6 hPa 0,0 l/m 6,0 km/h (2 Bft) 2 min 7,7 km/h (2 Bft)
24.08.2009 10:36 22,4 C 20,5 C 11,9 UV-I 5,3 C 53 % 66 % 100 % 1010,6 hPa 0,0 l/m 5,8 km/h (2 Bft) 2 min 7,7 km/h (2 Bft)
24.08.2009 10:38 22,4 C 20,5 C 12,7 UV-I 5,4 C 53 % 66 % 100 % 1010,6 hPa 0,0 l/m 5,1 km/h (1 Bft) 2 min 16,1 km/h (3 Bft)
24.08.2009 10:40 22,4 C 20,7 C 12,7 UV-I 5,4 C 53 % 65 % 100 % 1010,6 hPa 0,0 l/m 4,8 km/h (1 Bft) 2 min 5,8 km/h (2 Bft)
24.08.2009 10:42 22,4 C 20,7 C 12,9 UV-I 5,5 C 53 % 65 % 100 % 1010,6 hPa 0,0 l/m 5,1 km/h (1 Bft) 2 min 13,7 km/h (3 Bft)
24.08.2009 10:44 22,4 C 20,9 C 12,9 UV-I 5,4 C 53 % 65 % 100 % 1010,6 hPa 0,0 l/m 5,1 km/h (1 Bft) 2 min 13,7 km/h (3 Bft)
24.08.2009 10:46 22,4 C 21,0 C 12,9 UV-I 5,5 C 53 % 64 % 100 % 1010,6 hPa 0,0 l/m 5,5 km/h (1 Bft) 2 min 14,4 km/h (3 Bft)
24.08.2009 10:48 22,4 C 21,1 C 13,0 UV-I 5,2 C 53 % 64 % 100 % 1010,6 hPa 0,0 l/m 6,3 km/h (2 Bft) 2 min 14,9 km/h (3 Bft)
24.08.2009 10:50 22,4 C 21,2 C 13,0 UV-I 5,0 C 53 % 63 % 100 % 1010,6 hPa 0,0 l/m 6,5 km/h (2 Bft) 2 min 17,1 km/h (3 Bft)
24.08.2009 10:52 22,4 C 21,2 C 13,1 UV-I 4,9 C 53 % 63 % 100 % 1010,6 hPa 0,0 l/m 7,0 km/h (2 Bft) 2 min 17,1 km/h (3 Bft)
24.08.2009 10:54 22,5 C 21,4 C 13,1 UV-I 4,6 C 53 % 63 % 100 % 1010,6 hPa 0,0 l/m 7,7 km/h (2 Bft) 2 min 7,0 km/h (2 Bft)
24.08.2009 10:56 22,5 C 21,5 C 13,1 UV-I 4,6 C 53 % 63 % 100 % 1010,4 hPa 0,0 l/m 8,2 km/h (2 Bft) 2 min 2,4 km/h (1 Bft)
24.08.2009 10:58 22,5 C 21,7 C 12,9 UV-I 4,6 C 53 % 62 % 100 % 1010,4 hPa 0,0 l/m 7,0 km/h (2 Bft) 2 min 11,5 km/h (2 Bft)
24.08.2009 11:00 22,5 C 21,7 C 12,9 UV-I 4,8 C 53 % 62 % 100 % 1010,4 hPa 0,0 l/m 6,5 km/h (2 Bft) 2 min 11,5 km/h (2 Bft)
24.08.2009 11:02 22,5 C 21,9 C 13,1 UV-I 4,7 C 53 % 62 % 100 % 1010,4 hPa 0,0 l/m 6,0 km/h (2 Bft) 2 min 10,1 km/h (2 Bft)
24.08.2009 11:04 22,5 C 21,9 C 13,1 UV-I 4,8 C 53 % 62 % 100 % 1010,4 hPa 0,0 l/m 5,3 km/h (1 Bft) 2 min 6,0 km/h (2 Bft)
24.08.2009 11:06 22,6 C 22,0 C 13,1 UV-I 4,9 C 53 % 62 % 100 % 1010,4 hPa 0,0 l/m 5,1 km/h (1 Bft) 2 min 14,4 km/h (3 Bft)
24.08.2009 11:08 22,6 C 22,1 C 13,4 UV-I 4,9 C 53 % 61 % 100 % 1010,4 hPa 0,0 l/m 5,3 km/h (1 Bft) 2 min 14,4 km/h (3 Bft)
24.08.2009 11:10 22,6 C 22,3 C 13,4 UV-I 5,0 C 53 % 61 % 100 % 1010,4 hPa 0,0 l/m 5,1 km/h (1 Bft) 2 min 7,9 km/h (2 Bft)
24.08.2009 11:12 22,6 C 22,4 C 13,3 UV-I 5,0 C 53 % 61 % 100 % 1010,4 hPa 0,0 l/m 4,6 km/h (1 Bft) 2 min 0,0 km/h (0 Bft)
24.08.2009 11:14 22,6 C 22,5 C 13,3 UV-I 5,2 C 53 % 61 % 100 % 1010,4 hPa 0,0 l/m 4,1 km/h (1 Bft) 2 min 7,0 km/h (2 Bft)
24.08.2009 11:18 22,6 C 22,8 C 13,3 UV-I 5,5 C 53 % 60 % 100 % 1010,3 hPa 0,0 l/m 2,9 km/h (1 Bft) 2 min 7,0 km/h (2 Bft)
24.08.2009 11:20 22,6 C 22,8 C 13,3 UV-I 5,7 C 53 % 60 % 100 % 1010,3 hPa 0,0 l/m 2,9 km/h (1 Bft) 2 min 4,6 km/h (1 Bft)
24.08.2009 11:22 22,6 C 22,9 C 13,3 UV-I 5,9 C 53 % 60 % 100 % 1010,3 hPa 0,0 l/m 2,6 km/h (1 Bft) 2 min 8,4 km/h (2 Bft)
24.08.2009 11:24 22,7 C 23,1 C 13,3 UV-I 5,6 C 53 % 59 % 100 % 1010,3 hPa 0,0 l/m 2,9 km/h (1 Bft) 2 min 8,4 km/h (2 Bft)
24.08.2009 11:26 22,6 C 23,3 C 13,3 UV-I 5,3 C 53 % 59 % 100 % 1010,3 hPa 0,0 l/m 3,1 km/h (1 Bft) 2 min 5,3 km/h (1 Bft)
24.08.2009 11:30 22,7 C 23,5 C 13,3 UV-I 5,1 C 53 % 58 % 100 % 1010,3 hPa 0,0 l/m 4,3 km/h (1 Bft) 2 min 4,6 km/h (1 Bft)
24.08.2009 11:34 22,7 C 23,7 C 13,0 UV-I 4,9 C 53 % 57 % 100 % 1010,3 hPa 0,0 l/m 3,6 km/h (1 Bft) 2 min 4,8 km/h (1 Bft)
24.08.2009 11:36 22,8 C 23,7 C 13,0 UV-I 5,2 C 53 % 57 % 100 % 1009,9 hPa 0,0 l/m 3,4 km/h (1 Bft) 2 min 4,8 km/h (1 Bft)
24.08.2009 11:38 22,8 C 23,9 C 13,0 UV-I 5,1 C 53 % 57 % 100 % 1009,9 hPa 0,0 l/m 4,3 km/h (1 Bft) 2 min 6,7 km/h (2 Bft)
24.08.2009 11:40 22,8 C 23,9 C 13,0 UV-I 4,9 C 53 % 57 % 100 % 1009,9 hPa 0,0 l/m 3,8 km/h (1 Bft) 2 min 6,7 km/h (2 Bft)
24.08.2009 11:42 22,8 C 24,0 C 13,1 UV-I 4,9 C 53 % 57 % 100 % 1009,9 hPa 0,0 l/m 3,4 km/h (1 Bft) 2 min 4,6 km/h (1 Bft)
24.08.2009 11:46 22,8 C 24,3 C 13,1 UV-I 4,9 C 53 % 55 % 100 % 1009,9 hPa 0,0 l/m 4,8 km/h (1 Bft) 2 min 8,2 km/h (2 Bft)
24.08.2009 11:48 22,8 C 24,4 C 13,3 UV-I 4,7 C 53 % 55 % 100 % 1009,9 hPa 0,0 l/m 3,6 km/h (1 Bft) 2 min 0,0 km/h (0 Bft)
24.08.2009 11:52 22,8 C 24,7 C 13,2 UV-I 5,1 C 53 % 56 % 100 % 1009,9 hPa 0,0 l/m 2,9 km/h (1 Bft) 2 min 4,1 km/h (1 Bft)
24.08.2009 11:54 22,8 C 24,7 C 13,2 UV-I 5,5 C 53 % 55 % 100 % 1009,9 hPa 0,0 l/m 2,4 km/h (1 Bft) 2 min 0,0 km/h (0 Bft)
24.08.2009 11:56 22,9 C 24,8 C 13,2 UV-I 5,8 C 53 % 55 % 100 % 1009,9 hPa 0,0 l/m 1,7 km/h (1 Bft) 2 min 7,9 km/h (2 Bft)
24.08.2009 11:58 22,9 C 25,1 C 13,0 UV-I 5,4 C 53 % 54 % 100 % 1009,9 hPa 0,0 l/m 1,9 km/h (1 Bft) 2 min 7,9 km/h (2 Bft)
24.08.2009 12:00 22,9 C 25,0 C 13,0 UV-I 5,6 C 53 % 54 % 100 % 1009,9 hPa 0,0 l/m 1,9 km/h (1 Bft) 2 min 2,6 km/h (1 Bft)
24.08.2009 12:02 22,9 C 25,2 C 13,0 UV-I 5,5 C 53 % 54 % 100 % 1009,9 hPa 0,0 l/m 1,9 km/h (1 Bft) 2 min 2,6 km/h (1 Bft)
24.08.2009 12:04 22,9 C 25,2 C 13,0 UV-I 5,5 C 53 % 54 % 100 % 1009,9 hPa 0,0 l/m 1,9 km/h (1 Bft) 2 min 2,6 km/h (1 Bft)
24.08.2009 12:06 22,9 C 25,3 C 13,0 UV-I 5,6 C 53 % 53 % 100 % 1009,9 hPa 0,0 l/m 2,9 km/h (1 Bft) 2 min 5,1 km/h (1 Bft)
24.08.2009 12:08 23,0 C 25,5 C 12,7 UV-I 5,2 C 53 % 53 % 100 % 1009,9 hPa 0,0 l/m 2,4 km/h (1 Bft) 2 min 3,8 km/h (1 Bft)
24.08.2009 12:10 23,0 C 25,5 C 12,7 UV-I 5,2 C 53 % 53 % 100 % 1009,9 hPa 0,0 l/m 3,1 km/h (1 Bft) 2 min 9,4 km/h (2 Bft)
24.08.2009 12:12 23,0 C 25,7 C 12,6 UV-I 4,6 C 53 % 52 % 100 % 1009,9 hPa 0,0 l/m 4,6 km/h (1 Bft) 2 min 14,4 km/h (3 Bft)
24.08.2009 12:14 23,0 C 25,7 C 12,6 UV-I 4,3 C 53 % 51 % 100 % 1009,9 hPa 0,0 l/m 5,1 km/h (1 Bft) 2 min 14,4 km/h (3 Bft)
24.08.2009 12:16 23,0 C 25,9 C 12,6 UV-I 3,9 C 53 % 52 % 100 % 1009,8 hPa 0,0 l/m 5,8 km/h (2 Bft) 2 min 10,3 km/h (2 Bft)
24.08.2009 12:18 23,0 C 25,9 C 12,7 UV-I 3,9 C 53 % 51 % 100 % 1009,8 hPa 0,0 l/m 5,5 km/h (1 Bft) 2 min 10,3 km/h (2 Bft)
24.08.2009 12:22 23,1 C 26,1 C 12,5 UV-I 4,2 C 52 % 51 % 100 % 1009,8 hPa 0,0 l/m 4,3 km/h (1 Bft) 2 min 9,4 km/h (2 Bft)
24.08.2009 12:24 23,1 C 26,3 C 12,5 UV-I 4,3 C 52 % 52 % 100 % 1009,8 hPa 0,0 l/m 3,4 km/h (1 Bft) 2 min 4,1 km/h (1 Bft)
24.08.2009 12:26 23,1 C 26,3 C 12,5 UV-I 4,6 C 52 % 50 % 100 % 1009,8 hPa 0,0 l/m 2,9 km/h (1 Bft) 2 min 4,6 km/h (1 Bft)
24.08.2009 12:28 23,1 C 26,5 C 12,2 UV-I 4,6 C 52 % 51 % 100 % 1009,8 hPa 0,0 l/m 2,2 km/h (1 Bft) 2 min 4,6 km/h (1 Bft)
24.08.2009 12:30 23,2 C 26,5 C 12,2 UV-I 4,8 C 52 % 50 % 100 % 1009,8 hPa 0,0 l/m 2,4 km/h (1 Bft) 2 min 3,1 km/h (1 Bft)
24.08.2009 12:32 23,2 C 26,6 C 12,2 UV-I 4,7 C 52 % 49 % 100 % 1009,8 hPa 0,0 l/m 2,9 km/h (1 Bft) 2 min 5,5 km/h (1 Bft)
24.08.2009 12:34 23,2 C 26,8 C 12,2 UV-I 4,5 C 52 % 49 % 100 % 1009,8 hPa 0,0 l/m 2,9 km/h (1 Bft) 2 min 5,5 km/h (1 Bft)
24.08.2009 12:36 23,2 C 26,8 C 12,2 UV-I 4,7 C 52 % 50 % 100 % 1009,9 hPa 0,0 l/m 2,2 km/h (1 Bft) 2 min 2,4 km/h (1 Bft)
24.08.2009 12:40 23,2 C 27,1 C 12,1 UV-I 4,8 C 52 % 49 % 100 % 1009,9 hPa 0,0 l/m 2,2 km/h (1 Bft) 2 min 0,0 km/h (0 Bft)
24.08.2009 12:42 23,2 C 27,1 C 12,0 UV-I 4,8 C 52 % 48 % 100 % 1009,9 hPa 0,0 l/m 1,9 km/h (1 Bft) 2 min 0,0 km/h (0 Bft)
24.08.2009 12:44 23,2 C 27,2 C 12,0 UV-I 4,8 C 52 % 48 % 100 % 1009,9 hPa 0,0 l/m 1,9 km/h (1 Bft) 2 min 9,9 km/h (2 Bft)
24.08.2009 12:46 23,2 C 27,2 C 12,0 UV-I 4,8 C 52 % 47 % 100 % 1009,9 hPa 0,0 l/m 2,4 km/h (1 Bft) 2 min 5,8 km/h (2 Bft)
24.08.2009 12:48 23,3 C 27,3 C 11,9 UV-I 4,5 C 52 % 48 % 100 % 1009,9 hPa 0,0 l/m 2,4 km/h (1 Bft) 2 min 0,0 km/h (0 Bft)
24.08.2009 12:50 23,2 C 27,3 C 11,9 UV-I 4,6 C 52 % 48 % 100 % 1009,9 hPa 0,0 l/m 1,9 km/h (1 Bft) 2 min 0,0 km/h (0 Bft)
24.08.2009 12:52 23,2 C 27,5 C 12,0 UV-I 4,5 C 52 % 47 % 100 % 1009,9 hPa 0,0 l/m 2,4 km/h (1 Bft) 2 min 3,1 km/h (1 Bft)
24.08.2009 12:54 23,2 C 27,4 C 12,0 UV-I 4,7 C 52 % 47 % 100 % 1009,9 hPa 0,0 l/m 2,6 km/h (1 Bft) 2 min 6,3 km/h (2 Bft)
24.08.2009 12:56 23,2 C 27,6 C 12,0 UV-I 4,6 C 52 % 47 % 100 % 1009,7 hPa 0,0 l/m 2,2 km/h (1 Bft) 2 min 0,0 km/h (0 Bft)
24.08.2009 12:58 23,2 C 27,6 C 9,0 UV-I 4,7 C 52 % 48 % 100 % 1009,7 hPa 0,0 l/m 1,9 km/h (1 Bft) 2 min 9,1 km/h (2 Bft)
24.08.2009 13:02 23,4 C 27,8 C 4,8 UV-I 4,6 C 52 % 46 % 100 % 1009,7 hPa 0,0 l/m 2,2 km/h (1 Bft) 2 min 9,1 km/h (2 Bft)
24.08.2009 13:04 23,4 C 27,8 C 4,8 UV-I 4,6 C 52 % 47 % 100 % 1009,7 hPa 0,0 l/m 2,4 km/h (1 Bft) 2 min 5,8 km/h (2 Bft)
24.08.2009 13:06 23,4 C 27,9 C 4,8 UV-I 4,6 C 52 % 47 % 100 % 1009,7 hPa 0,0 l/m 1,9 km/h (1 Bft) 2 min 3,4 km/h (1 Bft)
24.08.2009 13:08 23,4 C 28,1 C 5,6 UV-I 4,5 C 52 % 46 % 100 % 1009,7 hPa 0,0 l/m 1,9 km/h (1 Bft) 2 min 3,4 km/h (1 Bft)
24.08.2009 13:10 23,5 C 28,1 C 5,6 UV-I 4,6 C 52 % 47 % 100 % 1009,7 hPa 0,0 l/m 1,4 km/h (1 Bft) 2 min 2,6 km/h (1 Bft)
24.08.2009 13:12 23,5 C 28,3 C 5,8 UV-I 4,5 C 52 % 46 % 100 % 1009,7 hPa 0,0 l/m 1,9 km/h (1 Bft) 2 min 10,3 km/h (2 Bft)
24.08.2009 13:14 23,5 C 28,3 C 5,8 UV-I 4,5 C 52 % 45 % 100 % 1009,7 hPa 0,0 l/m 2,4 km/h (1 Bft) 2 min 12,8 km/h (3 Bft)
24.08.2009 13:16 23,6 C 28,2 C 5,8 UV-I 4,4 C 52 % 45 % 100 % 1009,4 hPa 0,0 l/m 3,1 km/h (1 Bft) 2 min 11,1 km/h (2 Bft)
24.08.2009 13:18 23,6 C 28,3 C 4,1 UV-I 4,2 C 52 % 46 % 100 % 1009,4 hPa 0,0 l/m 3,4 km/h (1 Bft) 2 min 11,1 km/h (2 Bft)
24.08.2009 13:20 23,6 C 28,3 C 4,1 UV-I 4,2 C 52 % 46 % 100 % 1009,4 hPa 0,0 l/m 4,3 km/h (1 Bft) 2 min 10,1 km/h (2 Bft)
24.08.2009 13:22 23,6 C 28,4 C 4,1 UV-I 3,9 C 52 % 45 % 100 % 1009,4 hPa 0,0 l/m 4,3 km/h (1 Bft) 2 min 10,1 km/h (2 Bft)
24.08.2009 13:24 23,6 C 28,5 C 4,1 UV-I 3,9 C 52 % 45 % 100 % 1009,4 hPa 0,0 l/m 4,1 km/h (1 Bft) 2 min 6,3 km/h (2 Bft)
24.08.2009 13:26 23,7 C 28,6 C 4,1 UV-I 3,9 C 52 % 45 % 100 % 1009,4 hPa 0,0 l/m 4,1 km/h (1 Bft) 2 min 6,3 km/h (2 Bft)
24.08.2009 13:28 23,7 C 28,7 C 3,9 UV-I 3,8 C 52 % 45 % 100 % 1009,4 hPa 0,0 l/m 3,8 km/h (1 Bft) 2 min 6,5 km/h (2 Bft)
24.08.2009 13:30 23,8 C 28,7 C 3,9 UV-I 3,7 C 52 % 45 % 100 % 1009,4 hPa 0,0 l/m 4,3 km/h (1 Bft) 2 min 9,1 km/h (2 Bft)
24.08.2009 13:32 23,8 C 28,8 C 3,9 UV-I 3,5 C 52 % 45 % 100 % 1009,4 hPa 0,0 l/m 4,6 km/h (1 Bft) 2 min 5,3 km/h (1 Bft)
24.08.2009 13:34 23,8 C 28,8 C 3,9 UV-I 3,5 C 52 % 45 % 100 % 1009,4 hPa 0,0 l/m 4,3 km/h (1 Bft) 2 min 9,1 km/h (2 Bft)
24.08.2009 13:38 23,9 C 29,1 C 4,0 UV-I 3,2 C 51 % 44 % 91 % 1009,5 hPa 0,0 l/m 4,6 km/h (1 Bft) 2 min 10,8 km/h (2 Bft)
24.08.2009 13:40 24,0 C 29,0 C 4,0 UV-I 3,3 C 51 % 44 % 94 % 1009,5 hPa 0,0 l/m 4,6 km/h (1 Bft) 2 min 10,8 km/h (2 Bft)
24.08.2009 13:42 24,0 C 29,1 C 4,0 UV-I 3,2 C 51 % 44 % 91 % 1009,5 hPa 0,0 l/m 4,3 km/h (1 Bft) 2 min 8,9 km/h (2 Bft)
24.08.2009 13:44 24,1 C 29,1 C 4,0 UV-I 3,1 C 51 % 44 % 89 % 1009,5 hPa 0,0 l/m 4,8 km/h (1 Bft) 2 min 6,7 km/h (2 Bft)
24.08.2009 13:50 24,2 C 29,3 C 6,7 UV-I 3,7 C 51 % 44 % 100 % 1009,5 hPa 0,0 l/m 3,1 km/h (1 Bft) 2 min 6,0 km/h (2 Bft)
24.08.2009 13:52 24,3 C 29,5 C 9,5 UV-I 3,7 C 51 % 44 % 100 % 1009,5 hPa 0,0 l/m 2,9 km/h (1 Bft) 2 min 4,3 km/h (1 Bft)
24.08.2009 13:56 24,4 C 29,6 C 9,5 UV-I 4,1 C 51 % 44 % 100 % 1009,3 hPa 0,0 l/m 1,7 km/h (1 Bft) 2 min 4,3 km/h (1 Bft)
24.08.2009 14:00 24,5 C 29,8 C 9,3 UV-I 4,2 C 51 % 43 % 100 % 1009,3 hPa 0,0 l/m 2,6 km/h (1 Bft) 2 min 10,1 km/h (2 Bft)
24.08.2009 14:02 24,6 C 30,0 C 9,3 UV-I 4,0 C 51 % 43 % 100 % 1009,3 hPa 0,0 l/m 2,4 km/h (1 Bft) 2 min 10,1 km/h (2 Bft)
24.08.2009 14:04 24,7 C 30,1 C 9,3 UV-I 4,1 C 51 % 43 % 100 % 1009,3 hPa 0,0 l/m 2,4 km/h (1 Bft) 2 min 4,1 km/h (1 Bft)
24.08.2009 14:06 24,8 C 30,1 C 9,3 UV-I 3,9 C 51 % 42 % 100 % 1009,3 hPa 0,0 l/m 4,3 km/h (1 Bft) 2 min 6,3 km/h (2 Bft)
24.08.2009 14:08 24,8 C 30,2 C 9,3 UV-I 3,6 C 51 % 42 % 100 % 1009,3 hPa 0,0 l/m 4,8 km/h (1 Bft) 2 min 7,7 km/h (2 Bft)
24.08.2009 14:10 24,9 C 30,2 C 9,3 UV-I 3,4 C 51 % 42 % 97 % 1009,3 hPa 0,0 l/m 5,3 km/h (1 Bft) 2 min 10,3 km/h (2 Bft)
24.08.2009 14:18 25,2 C 30,4 C 9,2 UV-I 2,8 C 50 % 41 % 80 % 1010,9 hPa 0,0 l/m 6,0 km/h (2 Bft) 0 min 10,1 km/h (2 Bft)
24.08.2009 14:20 25,2 C 30,5 C 9,2 UV-I 2,7 C 50 % 41 % 77 % 1010,9 hPa 0,0 l/m 6,3 km/h (2 Bft) 0 min 10,1 km/h (2 Bft)
24.08.2009 14:22 25,3 C 30,5 C 9,1 UV-I 2,7 C 50 % 41 % 77 % 1010,9 hPa 0,0 l/m 5,5 km/h (1 Bft) 0 min 10,1 km/h (2 Bft)
24.08.2009 14:24 25,4 C 30,5 C 9,1 UV-I 2,8 C 50 % 42 % 80 % 1010,9 hPa 0,0 l/m 4,6 km/h (1 Bft) 0 min 7,2 km/h (2 Bft)
24.08.2009 14:26 25,4 C 30,5 C 9,1 UV-I 2,9 C 50 % 41 % 83 % 1010,9 hPa 0,0 l/m 4,3 km/h (1 Bft) 2 min 14,4 km/h (3 Bft)
24.08.2009 14:34 25,6 C 30,8 C 9,0 UV-I 2,4 C 49 % 40 % 69 % 1010,9 hPa 0,0 l/m 7,2 km/h (2 Bft) 0 min 20,9 km/h (4 Bft)
24.08.2009 14:38 25,8 C 30,9 C 9,3 UV-I 2,5 C 49 % 40 % 71 % 1013,6 hPa 0,0 l/m 6,3 km/h (2 Bft) 0 min 9,1 km/h (2 Bft)
24.08.2009 14:40 25,8 C 31,0 C 9,3 UV-I 2,7 C 48 % 40 % 77 % 1013,6 hPa 0,0 l/m 5,8 km/h (2 Bft) 0 min 9,1 km/h (2 Bft)
24.08.2009 14:42 25,9 C 31,1 C 9,5 UV-I 2,8 C 48 % 41 % 80 % 1013,6 hPa 0,0 l/m 4,6 km/h (1 Bft) 0 min 7,0 km/h (2 Bft)
24.08.2009 14:46 26,0 C 31,0 C 9,5 UV-I 3,0 C 48 % 40 % 86 % 1013,6 hPa 0,0 l/m 4,1 km/h (1 Bft) 2 min 16,1 km/h (3 Bft)
24.08.2009 14:56 26,2 C 31,4 C 9,9 UV-I 3,0 C 47 % 40 % 86 % 1012,7 hPa 0,0 l/m 5,1 km/h (1 Bft) 2 min 16,8 km/h (3 Bft)
24.08.2009 14:59 26,4 C 31,6 C 10,0 UV-I 2,9 C 47 % 40 % 83 % 1012,7 hPa 0,0 l/m 3,8 km/h (1 Bft) 2 min 6,3 km/h (2 Bft)
24.08.2009 15:04 26,5 C 31,6 C 10,3 UV-I 2,9 C 47 % 37 % 83 % 1012,7 hPa 0,0 l/m 4,8 km/h (1 Bft) 2 min 4,3 km/h (1 Bft)
24.08.2009 15:09 26,6 C 31,7 C 10,4 UV-I 2,4 C 47 % 38 % 69 % 1012,7 hPa 0,0 l/m 6,7 km/h (2 Bft) 0 min 9,1 km/h (2 Bft)
24.08.2009 15:14 26,8 C 31,6 C 11,0 UV-I 2,1 C 46 % 37 % 60 % 1012,7 hPa 0,0 l/m 6,5 km/h (2 Bft) 0 min 4,3 km/h (1 Bft)
24.08.2009 15:19 27,0 C 31,3 C 10,7 UV-I 2,7 C 46 % 37 % 77 % 1013,1 hPa 0,0 l/m 5,5 km/h (1 Bft) 0 min 11,8 km/h (2 Bft)
24.08.2009 15:24 27,1 C 31,3 C 10,7 UV-I 2,7 C 45 % 38 % 77 % 1013,1 hPa 0,0 l/m 5,3 km/h (1 Bft) 0 min 8,9 km/h (2 Bft)
24.08.2009 15:29 27,2 C 31,5 C 11,0 UV-I 2,6 C 45 % 37 % 74 % 1013,1 hPa 0,0 l/m 6,7 km/h (2 Bft) 0 min 10,3 km/h (2 Bft)
24.08.2009 15:34 27,4 C 31,6 C 11,2 UV-I 2,6 C 45 % 37 % 74 % 1013,1 hPa 0,0 l/m 6,0 km/h (2 Bft) 0 min 2,4 km/h (1 Bft)
24.08.2009 15:39 27,6 C 31,9 C 11,3 UV-I 3,3 C 44 % 38 % 94 % 1011,6 hPa 0,0 l/m 3,4 km/h (1 Bft) 2 min 3,4 km/h (1 Bft)
24.08.2009 15:44 27,6 C 32,0 C 11,3 UV-I 3,5 C 44 % 38 % 100 % 1011,6 hPa 0,0 l/m 2,9 km/h (1 Bft) 2 min 20,5 km/h (4 Bft)
24.08.2009 15:49 27,8 C 32,3 C 11,7 UV-I 3,3 C 44 % 38 % 94 % 1011,6 hPa 0,0 l/m 3,6 km/h (1 Bft) 2 min 2,6 km/h (1 Bft)
24.08.2009 15:54 27,8 C 32,2 C 12,2 UV-I 3,6 C 44 % 36 % 100 % 1011,6 hPa 0,0 l/m 4,1 km/h (1 Bft) 2 min 4,8 km/h (1 Bft)
24.08.2009 15:59 28,0 C 32,3 C 12,3 UV-I 3,5 C 43 % 35 % 100 % 1012,4 hPa 0,0 l/m 3,8 km/h (1 Bft) 2 min 6,0 km/h (2 Bft)
24.08.2009 16:04 28,2 C 32,3 C 7,4 UV-I 3,3 C 43 % 35 % 94 % 1012,4 hPa 0,0 l/m 3,6 km/h (1 Bft) 2 min 3,1 km/h (1 Bft)
24.08.2009 16:09 28,4 C 32,3 C 3,7 UV-I 3,9 C 42 % 35 % 100 % 1012,4 hPa 0,0 l/m 2,4 km/h (1 Bft) 2 min 9,9 km/h (2 Bft)
24.08.2009 16:14 28,5 C 32,3 C 6,2 UV-I 4,0 C 42 % 35 % 100 % 1012,4 hPa 0,0 l/m 2,4 km/h (1 Bft) 2 min 5,3 km/h (1 Bft)
24.08.2009 16:19 28,6 C 32,5 C 4,7 UV-I 3,9 C 42 % 35 % 100 % 1012,7 hPa 0,0 l/m 3,1 km/h (1 Bft) 2 min 3,1 km/h (1 Bft)
24.08.2009 16:24 28,7 C 32,5 C 2,9 UV-I 3,9 C 42 % 35 % 100 % 1012,7 hPa 0,0 l/m 2,4 km/h (1 Bft) 2 min 0,0 km/h (0 Bft)
24.08.2009 16:29 28,8 C 32,5 C 3,0 UV-I 3,7 C 42 % 34 % 100 % 1012,7 hPa 0,0 l/m 3,1 km/h (1 Bft) 2 min 6,5 km/h (2 Bft)
24.08.2009 16:34 28,9 C 32,5 C 2,7 UV-I 3,6 C 41 % 34 % 100 % 1012,7 hPa 0,0 l/m 4,3 km/h (1 Bft) 2 min 15,9 km/h (3 Bft)
24.08.2009 16:39 29,0 C 32,5 C 2,6 UV-I 3,0 C 41 % 34 % 86 % 1012,2 hPa 0,0 l/m 6,5 km/h (2 Bft) 2 min 4,3 km/h (1 Bft)
24.08.2009 16:44 28,9 C 32,6 C 2,4 UV-I 2,7 C 41 % 34 % 77 % 1012,2 hPa 0,0 l/m 6,7 km/h (2 Bft) 0 min 8,9 km/h (2 Bft)
24.08.2009 16:49 29,0 C 32,7 C 2,5 UV-I 3,0 C 41 % 33 % 86 % 1012,2 hPa 0,0 l/m 4,6 km/h (1 Bft) 2 min 19,7 km/h (3 Bft)
24.08.2009 16:54 29,1 C 32,5 C 2,4 UV-I 3,2 C 41 % 34 % 91 % 1012,2 hPa 0,0 l/m 4,1 km/h (1 Bft) 2 min 0,0 km/h (0 Bft)
24.08.2009 16:59 29,0 C 32,2 C 2,4 UV-I 3,4 C 41 % 33 % 97 % 1011,5 hPa 0,0 l/m 4,6 km/h (1 Bft) 2 min 5,3 km/h (1 Bft)
24.08.2009 17:04 29,0 C 32,1 C 2,2 UV-I 3,1 C 41 % 33 % 89 % 1011,5 hPa 0,0 l/m 4,6 km/h (1 Bft) 2 min 7,9 km/h (2 Bft)
24.08.2009 17:09 29,1 C 32,1 C 2,3 UV-I 3,1 C 41 % 34 % 89 % 1011,5 hPa 0,0 l/m 3,6 km/h (1 Bft) 2 min 0,0 km/h (0 Bft)
24.08.2009 17:14 29,0 C 32,0 C 2,3 UV-I 3,6 C 41 % 34 % 100 % 1011,5 hPa 0,0 l/m 2,9 km/h (1 Bft) 2 min 6,7 km/h (2 Bft)
24.08.2009 17:19 29,0 C 32,0 C 2,2 UV-I 3,9 C 41 % 35 % 100 % 1010,6 hPa 0,0 l/m 2,6 km/h (1 Bft) 2 min 2,6 km/h (1 Bft)
24.08.2009 17:24 28,9 C 31,9 C 2,1 UV-I 3,6 C 41 % 33 % 100 % 1010,6 hPa 0,0 l/m 2,4 km/h (1 Bft) 2 min 5,5 km/h (1 Bft)
24.08.2009 17:29 28,8 C 31,8 C 2,1 UV-I 2,3 C 41 % 34 % 66 % 1010,6 hPa 0,0 l/m 1,4 km/h (1 Bft) 0 min 5,1 km/h (1 Bft)
24.08.2009 17:34 28,6 C 31,6 C 2,1 UV-I 1,8 C 41 % 34 % 51 % 1010,6 hPa 0,0 l/m 1,4 km/h (1 Bft) 0 min 4,3 km/h (1 Bft)
24.08.2009 17:39 28,4 C 31,5 C 2,0 UV-I 0,9 C 41 % 33 % 26 % 1009,9 hPa 0,0 l/m 3,4 km/h (1 Bft) 0 min 2,9 km/h (1 Bft)
24.08.2009 17:44 28,2 C 31,3 C 2,0 UV-I 0,5 C 41 % 33 % 14 % 1009,9 hPa 0,0 l/m 3,6 km/h (1 Bft) 0 min 0,0 km/h (0 Bft)
24.08.2009 17:49 28,1 C 31,0 C 1,8 UV-I 0,3 C 41 % 34 % 9 % 1009,9 hPa 0,0 l/m 3,6 km/h (1 Bft) 0 min 7,9 km/h (2 Bft)
24.08.2009 17:54 28,0 C 31,0 C 1,9 UV-I 0,2 C 42 % 35 % 6 % 1009,9 hPa 0,0 l/m 2,4 km/h (1 Bft) 0 min 0,0 km/h (0 Bft)
24.08.2009 17:59 27,8 C 30,9 C 1,8 UV-I 0,1 C 42 % 35 % 3 % 1008,4 hPa 0,0 l/m 2,2 km/h (1 Bft) 0 min 3,4 km/h (1 Bft)
24.08.2009 18:04 27,7 C 30,8 C 1,6 UV-I 0,2 C 42 % 35 % 6 % 1008,4 hPa 0,0 l/m 1,9 km/h (1 Bft) 0 min 3,8 km/h (1 Bft)
24.08.2009 18:09 27,6 C 30,5 C 1,6 UV-I 0,1 C 43 % 36 % 3 % 1008,4 hPa 0,0 l/m 1,9 km/h (1 Bft) 0 min 0,0 km/h (0 Bft)
24.08.2009 18:14 27,5 C 30,5 C 1,6 UV-I 0,0 C 42 % 36 % 0 % 1008,4 hPa 0,0 l/m 2,2 km/h (1 Bft) 0 min 3,8 km/h (1 Bft)
24.08.2009 18:19 27,4 C 30,3 C 1,5 UV-I 0,1 C 43 % 36 % 3 % 1008,1 hPa 0,0 l/m 1,2 km/h (1 Bft) 0 min 3,6 km/h (1 Bft)
24.08.2009 18:24 27,3 C 30,2 C 1,4 UV-I 0,3 C 43 % 37 % 9 % 1008,1 hPa 0,0 l/m 1,2 km/h (1 Bft) 0 min 8,2 km/h (2 Bft)
24.08.2009 18:29 27,2 C 30,1 C 1,4 UV-I 0,0 C 44 % 37 % 0 % 1008,1 hPa 0,0 l/m 1,4 km/h (1 Bft) 0 min 2,9 km/h (1 Bft)
24.08.2009 18:34 27,1 C 29,9 C 1,2 UV-I 0,0 C 44 % 37 % 0 % 1008,1 hPa 0,0 l/m 1,4 km/h (1 Bft) 0 min 2,6 km/h (1 Bft)
24.08.2009 18:39 27,0 C 29,7 C 1,2 UV-I 0,0 C 44 % 38 % 0 % 1008,2 hPa 0,0 l/m 0,7 km/h (0 Bft) 0 min 0,0 km/h (0 Bft)
24.08.2009 18:44 27,0 C 29,7 C 0,9 UV-I 0,0 C 44 % 37 % 0 % 1008,2 hPa 0,0 l/m 0,7 km/h (0 Bft) 0 min 0,0 km/h (0 Bft)
24.08.2009 18:49 26,8 C 29,4 C 0,7 UV-I 0,0 C 44 % 38 % 0 % 1008,2 hPa 0,0 l/m 0,2 km/h (0 Bft) 0 min 0,0 km/h (0 Bft)
24.08.2009 18:54 26,8 C 29,3 C 0,6 UV-I 0,0 C 44 % 38 % 0 % 1008,2 hPa 0,0 l/m 0,2 km/h (0 Bft) 0 min 0,0 km/h (0 Bft)
24.08.2009 18:59 26,7 C 29,2 C 0,4 UV-I 0,0 C 44 % 39 % 0 % 1007,8 hPa 0,0 l/m 0,0 km/h (0 Bft) 0 min 0,0 km/h (0 Bft)
24.08.2009 19:04 26,6 C 29,1 C 0,4 UV-I 0,0 C 45 % 39 % 0 % 1007,8 hPa 0,0 l/m 0,0 km/h (0 Bft) 0 min 0,0 km/h (0 Bft)
24.08.2009 19:09 26,5 C 28,9 C 0,3 UV-I 0,0 C 45 % 40 % 0 % 1007,8 hPa 0,0 l/m 0,0 km/h (0 Bft) 0 min 0,0 km/h (0 Bft)
24.08.2009 19:14 26,4 C 28,8 C 0,3 UV-I 0,0 C 45 % 42 % 0 % 1007,8 hPa 0,0 l/m 0,0 km/h (0 Bft) 0 min 0,0 km/h (0 Bft)
24.08.2009 19:19 26,4 C 28,7 C 0,3 UV-I 0,0 C 45 % 43 % 0 % 1007,6 hPa 0,0 l/m 0,0 km/h (0 Bft) 0 min 0,0 km/h (0 Bft)
24.08.2009 19:24 26,2 C 28,5 C 0,2 UV-I 0,0 C 45 % 44 % 0 % 1007,6 hPa 0,0 l/m 0,0 km/h (0 Bft) 0 min 0,0 km/h (0 Bft)
24.08.2009 19:29 26,2 C 28,3 C 0,2 UV-I 0,0 C 46 % 45 % 0 % 1007,6 hPa 0,0 l/m 0,0 km/h (0 Bft) 0 min 0,0 km/h (0 Bft)
24.08.2009 19:34 26,2 C 28,3 C 0,0 UV-I 0,0 C 46 % 45 % 0 % 1007,6 hPa 0,0 l/m 0,0 km/h (0 Bft) 0 min 0,0 km/h (0 Bft)
24.08.2009 19:39 26,1 C 28,0 C 0,1 UV-I 0,0 C 46 % 47 % 0 % 1007,8 hPa 0,0 l/m 0,0 km/h (0 Bft) 0 min 0,0 km/h (0 Bft)
24.08.2009 19:44 26,1 C 27,9 C 0,0 UV-I 0,0 C 46 % 46 % 0 % 1007,8 hPa 0,0 l/m 0,0 km/h (0 Bft) 0 min 0,0 km/h (0 Bft)
24.08.2009 19:49 26,0 C 27,6 C 0,0 UV-I 0,0 C 46 % 46 % 0 % 1007,8 hPa 0,0 l/m 0,0 km/h (0 Bft) 0 min 0,0 km/h (0 Bft)
24.08.2009 19:54 26,0 C 27,5 C 0,0 UV-I 0,0 C 47 % 46 % 0 % 1007,8 hPa 0,0 l/m 0,0 km/h (0 Bft) 0 min 0,0 km/h (0 Bft)
24.08.2009 19:59 25,9 C 27,4 C 0,0 UV-I 0,0 C 47 % 46 % 0 % 1007,9 hPa 0,0 l/m 0,0 km/h (0 Bft) 0 min 0,0 km/h (0 Bft)
24.08.2009 20:04 25,9 C 27,3 C 0,0 UV-I 0,0 C 47 % 46 % 0 % 1007,9 hPa 0,0 l/m 0,2 km/h (0 Bft) 0 min 0,0 km/h (0 Bft)
24.08.2009 20:09 25,9 C 27,1 C 0,0 UV-I 0,0 C 47 % 47 % 0 % 1007,9 hPa 0,0 l/m 0,2 km/h (0 Bft) 0 min 0,0 km/h (0 Bft)
24.08.2009 20:14 25,8 C 27,0 C 0,0 UV-I 0,0 C 47 % 47 % 0 % 1007,9 hPa 0,0 l/m 0,2 km/h (0 Bft) 0 min 0,0 km/h (0 Bft)
24.08.2009 20:19 25,8 C 26,9 C 0,0 UV-I 0,0 C 47 % 49 % 0 % 1007,8 hPa 0,0 l/m 0,0 km/h (0 Bft) 0 min 0,0 km/h (0 Bft)
24.08.2009 20:24 25,8 C 26,7 C 0,0 UV-I 0,0 C 47 % 50 % 0 % 1007,8 hPa 0,0 l/m 0,0 km/h (0 Bft) 0 min 0,0 km/h (0 Bft)
24.08.2009 20:29 25,7 C 26,5 C 0,0 UV-I 0,0 C 48 % 50 % 0 % 1007,8 hPa 0,0 l/m 0,0 km/h (0 Bft) 0 min 0,0 km/h (0 Bft)
24.08.2009 20:34 25,7 C 26,4 C 0,0 UV-I 0,0 C 48 % 50 % 0 % 1007,8 hPa 0,0 l/m 0,0 km/h (0 Bft) 0 min 0,0 km/h (0 Bft)
24.08.2009 20:36 25,7 C 26,3 C 0,0 UV-I 0,0 C 48 % 50 % 0 % 1008,2 hPa 0,0 l/m 0,0 km/h (0 Bft) 0 min 0,0 km/h (0 Bft)
24.08.2009 20:38 25,7 C 26,3 C 0,0 UV-I 0,0 C 48 % 50 % 0 % 1008,2 hPa 0,0 l/m 0,0 km/h (0 Bft) 0 min 0,0 km/h (0 Bft)
24.08.2009 20:40 25,7 C 26,1 C 0,0 UV-I 0,0 C 48 % 50 % 0 % 1008,2 hPa 0,0 l/m 0,0 km/h (0 Bft) 0 min 0,0 km/h (0 Bft)
24.08.2009 20:42 25,6 C 26,0 C 0,0 UV-I 0,0 C 48 % 50 % 0 % 1008,2 hPa 0,0 l/m 0,0 km/h (0 Bft) 0 min 0,0 km/h (0 Bft)
24.08.2009 20:44 25,6 C 26,1 C 0,0 UV-I 0,0 C 48 % 50 % 0 % 1008,2 hPa 0,0 l/m 0,0 km/h (0 Bft) 0 min 0,0 km/h (0 Bft)
24.08.2009 20:46 25,6 C 25,9 C 0,0 UV-I 0,0 C 48 % 50 % 0 % 1008,2 hPa 0,0 l/m 0,0 km/h (0 Bft) 0 min 0,0 km/h (0 Bft)
24.08.2009 20:48 25,6 C 25,8 C 0,0 UV-I 0,0 C 48 % 50 % 0 % 1008,2 hPa 0,0 l/m 0,0 km/h (0 Bft) 0 min 0,0 km/h (0 Bft)
24.08.2009 20:50 25,6 C 25,9 C 0,0 UV-I 0,0 C 48 % 50 % 0 % 1008,2 hPa 0,0 l/m 0,0 km/h (0 Bft) 0 min 0,0 km/h (0 Bft)
24.08.2009 20:52 25,6 C 25,8 C 0,0 UV-I 0,0 C 48 % 50 % 0 % 1008,2 hPa 0,0 l/m 0,0 km/h (0 Bft) 0 min 0,0 km/h (0 Bft)
24.08.2009 20:54 25,6 C 25,7 C 0,0 UV-I 0,0 C 48 % 50 % 0 % 1008,2 hPa 0,0 l/m 0,0 km/h (0 Bft) 0 min 0,0 km/h (0 Bft)
24.08.2009 20:56 25,6 C 25,6 C 0,0 UV-I 0,0 C 48 % 50 % 0 % 1008,6 hPa 0,0 l/m 0,0 km/h (0 Bft) 0 min 0,0 km/h (0 Bft)
24.08.2009 20:58 25,6 C 25,7 C 0,0 UV-I 0,0 C 48 % 50 % 0 % 1008,6 hPa 0,0 l/m 0,0 km/h (0 Bft) 0 min 0,0 km/h (0 Bft)
24.08.2009 21:00 25,6 C 25,6 C 0,0 UV-I 0,0 C 48 % 50 % 0 % 1008,6 hPa 0,0 l/m 0,0 km/h (0 Bft) 0 min 0,0 km/h (0 Bft)
24.08.2009 21:02 25,6 C 25,6 C 0,0 UV-I 0,0 C 48 % 50 % 0 % 1008,6 hPa 0,0 l/m 0,0 km/h (0 Bft) 0 min 0,0 km/h (0 Bft)
24.08.2009 21:04 25,6 C 25,5 C 0,0 UV-I 0,0 C 48 % 50 % 0 % 1008,6 hPa 0,0 l/m 0,2 km/h (0 Bft) 0 min 0,0 km/h (0 Bft)
24.08.2009 21:06 25,5 C 25,5 C 0,0 UV-I 0,0 C 48 % 50 % 0 % 1008,6 hPa 0,0 l/m 0,2 km/h (0 Bft) 0 min 0,0 km/h (0 Bft)
24.08.2009 21:08 25,5 C 25,4 C 0,0 UV-I 0,0 C 49 % 50 % 0 % 1008,6 hPa 0,0 l/m 0,2 km/h (0 Bft) 0 min 0,0 km/h (0 Bft)
24.08.2009 21:10 25,5 C 25,5 C 0,0 UV-I 0,0 C 48 % 50 % 0 % 1008,6 hPa 0,0 l/m 0,2 km/h (0 Bft) 0 min 4,3 km/h (1 Bft)
24.08.2009 21:12 25,5 C 25,4 C 0,0 UV-I 0,0 C 48 % 50 % 0 % 1008,6 hPa 0,0 l/m 0,2 km/h (0 Bft) 0 min 4,3 km/h (1 Bft)
24.08.2009 21:14 25,5 C 25,4 C 0,0 UV-I 0,0 C 49 % 50 % 0 % 1008,6 hPa 0,0 l/m 0,7 km/h (0 Bft) 0 min 4,1 km/h (1 Bft)
24.08.2009 21:16 25,5 C 25,3 C 0,0 UV-I 0,0 C 49 % 50 % 0 % 1008,9 hPa 0,0 l/m 0,7 km/h (0 Bft) 0 min 3,1 km/h (1 Bft)
24.08.2009 21:18 25,5 C 25,3 C 0,0 UV-I 0,0 C 49 % 51 % 0 % 1008,9 hPa 0,0 l/m 0,7 km/h (0 Bft) 0 min 0,0 km/h (0 Bft)
24.08.2009 21:20 25,5 C 25,2 C 0,0 UV-I 0,0 C 49 % 51 % 0 % 1008,9 hPa 0,0 l/m 0,7 km/h (0 Bft) 0 min 2,4 km/h (1 Bft)
24.08.2009 21:22 25,4 C 25,3 C 0,0 UV-I 0,0 C 49 % 51 % 0 % 1008,9 hPa 0,0 l/m 0,7 km/h (0 Bft) 0 min 2,4 km/h (1 Bft)
24.08.2009 21:24 25,4 C 25,2 C 0,0 UV-I 0,0 C 49 % 51 % 0 % 1008,9 hPa 0,0 l/m 0,5 km/h (0 Bft) 0 min 0,0 km/h (0 Bft)
24.08.2009 21:26 25,4 C 25,1 C 0,0 UV-I 0,0 C 49 % 51 % 0 % 1008,9 hPa 0,0 l/m 0,2 km/h (0 Bft) 0 min 0,0 km/h (0 Bft)
24.08.2009 21:28 25,4 C 25,1 C 0,0 UV-I 0,0 C 49 % 52 % 0 % 1008,9 hPa 0,0 l/m 0,2 km/h (0 Bft) 0 min 0,0 km/h (0 Bft)
24.08.2009 21:30 25,4 C 25,1 C 0,0 UV-I 0,0 C 49 % 52 % 0 % 1008,9 hPa 0,0 l/m 0,2 km/h (0 Bft) 0 min 0,0 km/h (0 Bft)
24.08.2009 21:32 25,4 C 25,1 C 0,0 UV-I 0,0 C 49 % 52 % 0 % 1008,9 hPa 0,0 l/m 0,2 km/h (0 Bft) 0 min 0,0 km/h (0 Bft)
24.08.2009 21:34 25,4 C 24,9 C 0,0 UV-I 0,0 C 49 % 52 % 0 % 1008,9 hPa 0,0 l/m 0,2 km/h (0 Bft) 0 min 2,4 km/h (1 Bft)
24.08.2009 21:36 25,4 C 24,8 C 0,0 UV-I 0,0 C 49 % 52 % 0 % 1008,8 hPa 0,0 l/m 0,2 km/h (0 Bft) 0 min 2,4 km/h (1 Bft)
24.08.2009 21:38 25,4 C 24,8 C 0,0 UV-I 0,0 C 49 % 51 % 0 % 1008,8 hPa 0,0 l/m 0,5 km/h (0 Bft) 0 min 0,0 km/h (0 Bft)
24.08.2009 21:40 25,4 C 24,8 C 0,0 UV-I 0,0 C 49 % 51 % 0 % 1008,8 hPa 0,0 l/m 1,0 km/h (0 Bft) 0 min 5,5 km/h (1 Bft)
24.08.2009 21:42 25,2 C 24,8 C 0,0 UV-I 0,0 C 49 % 51 % 0 % 1008,8 hPa 0,0 l/m 0,7 km/h (0 Bft) 0 min 5,5 km/h (1 Bft)
24.08.2009 21:44 25,2 C 24,7 C 0,0 UV-I 0,0 C 49 % 51 % 0 % 1008,8 hPa 0,0 l/m 1,0 km/h (0 Bft) 0 min 2,6 km/h (1 Bft)
24.08.2009 21:46 25,2 C 24,7 C 0,0 UV-I 0,0 C 49 % 51 % 0 % 1008,8 hPa 0,0 l/m 1,0 km/h (0 Bft) 0 min 2,6 km/h (1 Bft)
24.08.2009 21:48 25,2 C 24,6 C 0,0 UV-I 0,0 C 49 % 51 % 0 % 1008,8 hPa 0,0 l/m 0,7 km/h (0 Bft) 0 min 0,0 km/h (0 Bft)
24.08.2009 21:50 25,2 C 24,7 C 0,0 UV-I 0,0 C 49 % 51 % 0 % 1008,8 hPa 0,0 l/m 0,7 km/h (0 Bft) 0 min 0,0 km/h (0 Bft)
24.08.2009 21:52 25,2 C 24,7 C 0,0 UV-I 0,0 C 49 % 52 % 0 % 1008,8 hPa 0,0 l/m 0,5 km/h (0 Bft) 0 min 2,4 km/h (1 Bft)
24.08.2009 21:54 25,2 C 24,6 C 0,0 UV-I 0,0 C 49 % 52 % 0 % 1008,8 hPa 0,0 l/m 0,2 km/h (0 Bft) 0 min 2,4 km/h (1 Bft)
24.08.2009 21:56 25,3 C 24,5 C 0,0 UV-I 0,0 C 49 % 52 % 0 % 1008,7 hPa 0,0 l/m 0,2 km/h (0 Bft) 0 min 0,0 km/h (0 Bft)
24.08.2009 21:58 25,2 C 24,5 C 0,0 UV-I 0,0 C 49 % 52 % 0 % 1008,7 hPa 0,0 l/m 0,0 km/h (0 Bft) 0 min 0,0 km/h (0 Bft)
24.08.2009 22:00 25,3 C 24,4 C 0,0 UV-I 0,0 C 49 % 52 % 0 % 1008,7 hPa 0,0 l/m 0,0 km/h (0 Bft) 0 min 0,0 km/h (0 Bft)
24.08.2009 22:02 25,3 C 24,4 C 0,0 UV-I 0,0 C 49 % 53 % 0 % 1008,7 hPa 0,0 l/m 0,0 km/h (0 Bft) 0 min 0,0 km/h (0 Bft)
24.08.2009 22:04 25,3 C 24,4 C 0,0 UV-I 0,0 C 49 % 53 % 0 % 1008,7 hPa 0,0 l/m 0,0 km/h (0 Bft) 0 min 0,0 km/h (0 Bft)
24.08.2009 22:06 25,3 C 24,3 C 0,0 UV-I 0,0 C 49 % 53 % 0 % 1008,7 hPa 0,0 l/m 0,0 km/h (0 Bft) 0 min 0,0 km/h (0 Bft)
24.08.2009 22:08 25,3 C 24,2 C 0,0 UV-I 0,0 C 49 % 53 % 0 % 1008,7 hPa 0,0 l/m 0,0 km/h (0 Bft) 0 min 0,0 km/h (0 Bft)
24.08.2009 22:10 25,3 C 24,3 C 0,0 UV-I 0,0 C 49 % 53 % 0 % 1008,7 hPa 0,0 l/m 0,0 km/h (0 Bft) 0 min 0,0 km/h (0 Bft)
24.08.2009 22:12 25,2 C 24,1 C 0,0 UV-I 0,0 C 49 % 54 % 0 % 1008,7 hPa 0,0 l/m 0,0 km/h (0 Bft) 0 min 0,0 km/h (0 Bft)
24.08.2009 22:14 25,2 C 24,1 C 0,0 UV-I 0,0 C 49 % 53 % 0 % 1008,7 hPa 0,0 l/m 0,0 km/h (0 Bft) 0 min 0,0 km/h (0 Bft)
24.08.2009 22:16 25,2 C 24,0 C 0,0 UV-I 0,0 C 49 % 52 % 0 % 1008,8 hPa 0,0 l/m 0,0 km/h (0 Bft) 0 min 0,0 km/h (0 Bft)
24.08.2009 22:18 25,2 C 24,0 C 0,0 UV-I 0,0 C 50 % 54 % 0 % 1008,8 hPa 0,0 l/m 0,0 km/h (0 Bft) 0 min 0,0 km/h (0 Bft)
24.08.2009 22:20 25,2 C 24,1 C 0,0 UV-I 0,0 C 50 % 53 % 0 % 1008,8 hPa 0,0 l/m 0,0 km/h (0 Bft) 0 min 0,0 km/h (0 Bft)
24.08.2009 22:22 25,2 C 24,0 C 0,0 UV-I 0,0 C 49 % 53 % 0 % 1008,8 hPa 0,0 l/m 0,2 km/h (0 Bft) 0 min 0,0 km/h (0 Bft)
24.08.2009 22:24 25,2 C 23,9 C 0,0 UV-I 0,0 C 49 % 53 % 0 % 1008,8 hPa 0,0 l/m 0,2 km/h (0 Bft) 0 min 0,0 km/h (0 Bft)
24.08.2009 22:26 25,2 C 23,9 C 0,0 UV-I 0,0 C 50 % 52 % 0 % 1008,8 hPa 0,0 l/m 0,5 km/h (0 Bft) 0 min 0,0 km/h (0 Bft)
24.08.2009 22:28 25,2 C 23,8 C 0,0 UV-I 0,0 C 50 % 52 % 0 % 1008,8 hPa 0,0 l/m 0,5 km/h (0 Bft) 0 min 0,0 km/h (0 Bft)
24.08.2009 22:30 25,2 C 23,9 C 0,0 UV-I 0,0 C 50 % 53 % 0 % 1008,8 hPa 0,0 l/m 0,5 km/h (0 Bft) 0 min 0,0 km/h (0 Bft)
24.08.2009 22:32 25,2 C 23,8 C 0,0 UV-I 0,0 C 50 % 53 % 0 % 1008,8 hPa 0,0 l/m 0,5 km/h (0 Bft) 0 min 2,4 km/h (1 Bft)
24.08.2009 22:34 25,2 C 23,7 C 0,0 UV-I 0,0 C 50 % 53 % 0 % 1008,8 hPa 0,0 l/m 0,2 km/h (0 Bft) 0 min 2,4 km/h (1 Bft)
24.08.2009 22:36 25,2 C 23,7 C 0,0 UV-I 0,0 C 50 % 53 % 0 % 1008,7 hPa 0,0 l/m 0,2 km/h (0 Bft) 0 min 0,0 km/h (0 Bft)
24.08.2009 22:38 25,2 C 23,6 C 0,0 UV-I 0,0 C 50 % 53 % 0 % 1008,7 hPa 0,0 l/m 0,0 km/h (0 Bft) 0 min 0,0 km/h (0 Bft)
24.08.2009 22:40 25,2 C 23,6 C 0,0 UV-I 0,0 C 50 % 53 % 0 % 1008,7 hPa 0,0 l/m 0,0 km/h (0 Bft) 0 min 0,0 km/h (0 Bft)
24.08.2009 22:42 25,2 C 23,6 C 0,0 UV-I 0,0 C 49 % 53 % 0 % 1008,7 hPa 0,0 l/m 0,0 km/h (0 Bft) 0 min 0,0 km/h (0 Bft)
24.08.2009 22:44 25,2 C 23,7 C 0,0 UV-I 0,0 C 50 % 53 % 0 % 1008,7 hPa 0,0 l/m 0,0 km/h (0 Bft) 0 min 0,0 km/h (0 Bft)
24.08.2009 22:46 25,2 C 23,6 C 0,0 UV-I 0,0 C 49 % 53 % 0 % 1008,7 hPa 0,0 l/m 0,2 km/h (0 Bft) 0 min 4,1 km/h (1 Bft)
24.08.2009 22:48 25,2 C 23,6 C 0,0 UV-I 0,0 C 49 % 53 % 0 % 1008,7 hPa 0,0 l/m 0,5 km/h (0 Bft) 0 min 4,1 km/h (1 Bft)
24.08.2009 22:50 25,1 C 23,6 C 0,0 UV-I 0,0 C 49 % 53 % 0 % 1008,7 hPa 0,0 l/m 0,5 km/h (0 Bft) 0 min 3,8 km/h (1 Bft)
24.08.2009 22:52 25,2 C 23,6 C 0,0 UV-I 0,0 C 49 % 53 % 0 % 1008,7 hPa 0,0 l/m 0,5 km/h (0 Bft) 0 min 0,0 km/h (0 Bft)
24.08.2009 22:54 25,2 C 23,6 C 0,0 UV-I 0,0 C 49 % 53 % 0 % 1008,7 hPa 0,0 l/m 0,7 km/h (0 Bft) 0 min 0,0 km/h (0 Bft)
24.08.2009 22:56 25,2 C 23,5 C 0,0 UV-I 0,0 C 50 % 53 % 0 % 1008,5 hPa 0,0 l/m 0,7 km/h (0 Bft) 0 min 0,0 km/h (0 Bft)
24.08.2009 22:58 25,1 C 23,5 C 0,0 UV-I 0,0 C 49 % 53 % 0 % 1008,5 hPa 0,0 l/m 0,2 km/h (0 Bft) 0 min 0,0 km/h (0 Bft)
24.08.2009 23:00 25,2 C 23,5 C 0,0 UV-I 0,0 C 49 % 53 % 0 % 1008,5 hPa 0,0 l/m 0,0 km/h (0 Bft) 0 min 0,0 km/h (0 Bft)
24.08.2009 23:02 25,1 C 23,5 C 0,0 UV-I 0,0 C 49 % 53 % 0 % 1008,5 hPa 0,0 l/m 0,0 km/h (0 Bft) 0 min 0,0 km/h (0 Bft)
24.08.2009 23:04 25,1 C 23,5 C 0,0 UV-I 0,0 C 49 % 53 % 0 % 1008,5 hPa 0,0 l/m 0,0 km/h (0 Bft) 0 min 0,0 km/h (0 Bft)
24.08.2009 23:06 25,1 C 23,5 C 0,0 UV-I 0,0 C 50 % 53 % 0 % 1008,5 hPa 0,0 l/m 0,0 km/h (0 Bft) 0 min 0,0 km/h (0 Bft)
24.08.2009 23:08 25,1 C 23,4 C 0,0 UV-I 0,0 C 50 % 53 % 0 % 1008,5 hPa 0,0 l/m 0,0 km/h (0 Bft) 0 min 0,0 km/h (0 Bft)
24.08.2009 23:10 25,1 C 23,5 C 0,0 UV-I 0,0 C 49 % 53 % 0 % 1008,5 hPa 0,0 l/m 0,0 km/h (0 Bft) 0 min 0,0 km/h (0 Bft)
24.08.2009 23:12 25,1 C 23,5 C 0,0 UV-I 0,0 C 50 % 54 % 0 % 1008,5 hPa 0,0 l/m 0,0 km/h (0 Bft) 0 min 0,0 km/h (0 Bft)
24.08.2009 23:14 25,1 C 23,4 C 0,0 UV-I 0,0 C 50 % 54 % 0 % 1008,5 hPa 0,0 l/m 0,0 km/h (0 Bft) 0 min 0,0 km/h (0 Bft)
24.08.2009 23:16 25,1 C 23,3 C 0,0 UV-I 0,0 C 50 % 54 % 0 % 1008,6 hPa 0,0 l/m 0,0 km/h (0 Bft) 0 min 0,0 km/h (0 Bft)
24.08.2009 23:18 25,1 C 23,3 C 0,0 UV-I 0,0 C 50 % 54 % 0 % 1008,6 hPa 0,0 l/m 0,0 km/h (0 Bft) 0 min 0,0 km/h (0 Bft)
24.08.2009 23:20 25,1 C 23,3 C 0,0 UV-I 0,0 C 50 % 54 % 0 % 1008,6 hPa 0,0 l/m 0,0 km/h (0 Bft) 0 min 0,0 km/h (0 Bft)
24.08.2009 23:22 25,1 C 23,3 C 0,0 UV-I 0,0 C 50 % 54 % 0 % 1008,6 hPa 0,0 l/m 0,0 km/h (0 Bft) 0 min 0,0 km/h (0 Bft)
24.08.2009 23:24 25,0 C 23,3 C 0,0 UV-I 0,0 C 50 % 55 % 0 % 1008,6 hPa 0,0 l/m 0,0 km/h (0 Bft) 0 min 0,0 km/h (0 Bft)
24.08.2009 23:26 25,0 C 23,2 C 0,0 UV-I 0,0 C 50 % 55 % 0 % 1008,6 hPa 0,0 l/m 0,0 km/h (0 Bft) 0 min 0,0 km/h (0 Bft)
24.08.2009 23:28 25,0 C 23,3 C 0,0 UV-I 0,0 C 50 % 55 % 0 % 1008,6 hPa 0,0 l/m 0,0 km/h (0 Bft) 0 min 0,0 km/h (0 Bft)
24.08.2009 23:30 25,1 C 23,3 C 0,0 UV-I 0,0 C 50 % 56 % 0 % 1008,6 hPa 0,0 l/m 0,0 km/h (0 Bft) 0 min 0,0 km/h (0 Bft)
24.08.2009 23:32 25,0 C 23,2 C 0,0 UV-I 0,0 C 50 % 56 % 0 % 1008,6 hPa 0,0 l/m 0,0 km/h (0 Bft) 0 min 0,0 km/h (0 Bft)
24.08.2009 23:34 25,0 C 23,1 C 0,0 UV-I 0,0 C 50 % 56 % 0 % 1008,6 hPa 0,0 l/m 0,0 km/h (0 Bft) 0 min 0,0 km/h (0 Bft)
24.08.2009 23:36 25,0 C 23,1 C 0,0 UV-I 0,0 C 50 % 56 % 0 % 1008,4 hPa 0,0 l/m 0,0 km/h (0 Bft) 0 min 0,0 km/h (0 Bft)
24.08.2009 23:38 25,0 C 23,1 C 0,0 UV-I 0,0 C 50 % 57 % 0 % 1008,4 hPa 0,0 l/m 0,0 km/h (0 Bft) 0 min 0,0 km/h (0 Bft)
24.08.2009 23:40 25,0 C 23,1 C 0,0 UV-I 0,0 C 50 % 57 % 0 % 1008,4 hPa 0,0 l/m 0,0 km/h (0 Bft) 0 min 0,0 km/h (0 Bft)
24.08.2009 23:42 25,0 C 23,0 C 0,0 UV-I 0,0 C 50 % 57 % 0 % 1008,4 hPa 0,0 l/m 0,0 km/h (0 Bft) 0 min 0,0 km/h (0 Bft)
24.08.2009 23:44 25,0 C 22,9 C 0,0 UV-I 0,0 C 50 % 58 % 0 % 1008,4 hPa 0,0 l/m 0,0 km/h (0 Bft) 0 min 0,0 km/h (0 Bft)
24.08.2009 23:46 25,0 C 22,9 C 0,0 UV-I 0,0 C 50 % 58 % 0 % 1008,4 hPa 0,0 l/m 0,0 km/h (0 Bft) 0 min 0,0 km/h (0 Bft)
24.08.2009 23:48 25,0 C 22,8 C 0,0 UV-I 0,0 C 50 % 58 % 0 % 1008,4 hPa 0,0 l/m 0,0 km/h (0 Bft) 0 min 0,0 km/h (0 Bft)
24.08.2009 23:50 25,0 C 22,8 C 0,0 UV-I 0,0 C 50 % 58 % 0 % 1008,4 hPa 0,0 l/m 0,0 km/h (0 Bft) 0 min 0,0 km/h (0 Bft)
24.08.2009 23:52 25,0 C 22,9 C 0,0 UV-I 0,0 C 50 % 58 % 0 % 1008,4 hPa 0,0 l/m 0,0 km/h (0 Bft) 0 min 0,0 km/h (0 Bft)
24.08.2009 23:54 25,0 C 22,8 C 0,0 UV-I 0,0 C 51 % 58 % 0 % 1008,4 hPa 0,0 l/m 0,0 km/h (0 Bft) 0 min 0,0 km/h (0 Bft)
24.08.2009 23:56 25,0 C 22,8 C 0,0 UV-I 0,0 C 51 % 58 % 0 % 1008,2 hPa 0,0 l/m 0,0 km/h (0 Bft) 0 min 0,0 km/h (0 Bft)
24.08.2009 23:58 25,0 C 22,7 C 0,0 UV-I 0,0 C 51 % 58 % 0 % 1008,2 hPa 0,0 l/m 0,0 km/h (0 Bft) 0 min 0,0 km/h (0 Bft)
_ Min-Zeit 07:06 06:44 00:04 00:04 16:34 16:49 00:04 19:19 - 00:04 - 00:04
Minimum _ 22,1 C 11,7 C 0,0 UV-I 0,0 C 41 % 33 % 0 % 1007,6 hPa - 0,0 km/h (0 Bft) - 0,0 km/h (0 Bft)
_ Max-Zeit 16:54 16:49 11:08 10:18 10:10 07:14 09:56 00:04 00:04 10:02 09:54 09:12
Maximum _ 29,1 C 32,7 C 13,4 UV-I 5,9 C 53 % 85 % 100 % 1016,4 hPa 0,0 l/m 8,4 km/h
NO (2 Bft)
2 min 22,1 km/h
O-NO (4 Bft)
Durchschnitt _ 24,3 C 21,9 C 2,9 UV-I 1,4 C 48 % 59 % 33 % 1011,2 hPa #0,0 l/m 1,8 km/h (1 Bft) #4:38 h 3,5 km/h (1 Bft)
© 2012 W. Hausmann